Wetterdaten: Samstag, 29.03.2014
Datum Zeit Temp. Aussen +5cm Feuchte Auss Luftdruck Regen Sonnenschein Regendauer UV Solar Windben
29.03.2014 00:00 9,6 C 7,8 C 68 % 1018,4 hPa 0,0 l/m 0 min 0 min 0,0 UV-I 0 W/m 7,7 km/h (2 Bft)
29.03.2014 00:02 9,6 C 7,8 C 68 % 1018,4 hPa 0,0 l/m 0 min 0 min 0,0 UV-I 0 W/m 7,7 km/h (2 Bft)
29.03.2014 00:06 9,6 C 7,8 C 68 % 1018,3 hPa 0,0 l/m 0 min 0 min 0,0 UV-I 0 W/m 12,9 km/h (3 Bft)
29.03.2014 00:08 9,6 C 7,8 C 68 % 1018,4 hPa 0,0 l/m 0 min 0 min 0,0 UV-I 0 W/m 12,9 km/h (3 Bft)
29.03.2014 00:10 9,5 C 7,8 C 68 % 1018,4 hPa 0,0 l/m 0 min 0 min 0,0 UV-I 0 W/m 7,7 km/h (2 Bft)
29.03.2014 00:12 9,5 C 7,8 C 68 % 1018,3 hPa 0,0 l/m 0 min 0 min 0,0 UV-I 0 W/m 23,2 km/h (4 Bft)
29.03.2014 00:14 9,5 C 7,8 C 68 % 1018,3 hPa 0,0 l/m 0 min 0 min 0,0 UV-I 0 W/m 15,4 km/h (3 Bft)
29.03.2014 00:16 9,5 C 7,8 C 68 % 1018,3 hPa 0,0 l/m 0 min 0 min 0,0 UV-I 0 W/m 12,9 km/h (3 Bft)
29.03.2014 00:18 9,4 C 7,8 C 68 % 1018,4 hPa 0,0 l/m 0 min 0 min 0,0 UV-I 0 W/m 12,9 km/h (3 Bft)
29.03.2014 00:20 9,4 C 7,8 C 69 % 1018,4 hPa 0,0 l/m 0 min 0 min 0,0 UV-I 0 W/m 10,3 km/h (2 Bft)
29.03.2014 00:22 9,3 C 7,2 C 69 % 1018,4 hPa 0,0 l/m 0 min 0 min 0,0 UV-I 0 W/m 12,9 km/h (3 Bft)
29.03.2014 00:24 9,3 C 7,2 C 69 % 1018,4 hPa 0,0 l/m 0 min 0 min 0,0 UV-I 0 W/m 7,7 km/h (2 Bft)
29.03.2014 00:26 9,3 C 7,2 C 69 % 1018,4 hPa 0,0 l/m 0 min 0 min 0,0 UV-I 0 W/m 10,3 km/h (2 Bft)
29.03.2014 00:28 9,2 C 7,2 C 70 % 1018,4 hPa 0,0 l/m 0 min 0 min 0,0 UV-I 0 W/m 10,3 km/h (2 Bft)
29.03.2014 00:30 9,2 C 7,2 C 70 % 1018,4 hPa 0,0 l/m 0 min 0 min 0,0 UV-I 0 W/m 12,9 km/h (3 Bft)
29.03.2014 00:32 9,1 C 7,2 C 70 % 1018,4 hPa 0,0 l/m 0 min 0 min 0,0 UV-I 0 W/m 10,3 km/h (2 Bft)
29.03.2014 00:34 9,1 C 7,2 C 70 % 1018,4 hPa 0,0 l/m 0 min 0 min 0,0 UV-I 0 W/m 10,3 km/h (2 Bft)
29.03.2014 00:36 9,1 C 7,2 C 70 % 1018,4 hPa 0,0 l/m 0 min 0 min 0,0 UV-I 0 W/m 15,4 km/h (3 Bft)
29.03.2014 00:38 9,1 C 7,2 C 70 % 1018,5 hPa 0,0 l/m 0 min 0 min 0,0 UV-I 0 W/m 12,9 km/h (3 Bft)
29.03.2014 00:40 9,0 C 7,2 C 71 % 1018,5 hPa 0,0 l/m 0 min 0 min 0,0 UV-I 0 W/m 10,3 km/h (2 Bft)
29.03.2014 00:42 9,0 C 7,2 C 71 % 1018,5 hPa 0,0 l/m 0 min 0 min 0,0 UV-I 0 W/m 10,3 km/h (2 Bft)
29.03.2014 00:44 8,9 C 7,2 C 71 % 1018,5 hPa 0,0 l/m 0 min 0 min 0,0 UV-I 0 W/m 12,9 km/h (3 Bft)
29.03.2014 00:46 8,9 C 7,2 C 71 % 1018,5 hPa 0,0 l/m 0 min 0 min 0,0 UV-I 0 W/m 2,6 km/h (1 Bft)
29.03.2014 00:48 8,8 C 7,2 C 71 % 1018,5 hPa 0,0 l/m 0 min 0 min 0,0 UV-I 0 W/m 7,7 km/h (2 Bft)
29.03.2014 00:50 8,8 C 7,2 C 71 % 1018,5 hPa 0,0 l/m 0 min 0 min 0,0 UV-I 0 W/m 12,9 km/h (3 Bft)
29.03.2014 00:52 8,8 C 7,2 C 71 % 1018,5 hPa 0,0 l/m 0 min 0 min 0,0 UV-I 0 W/m 10,3 km/h (2 Bft)
29.03.2014 00:54 8,8 C 7,2 C 72 % 1018,5 hPa 0,0 l/m 0 min 0 min 0,0 UV-I 0 W/m 12,9 km/h (3 Bft)
29.03.2014 00:56 8,8 C 7,2 C 72 % 1018,6 hPa 0,0 l/m 0 min 0 min 0,0 UV-I 0 W/m 15,4 km/h (3 Bft)
29.03.2014 00:58 8,8 C 7,2 C 72 % 1018,6 hPa 0,0 l/m 0 min 0 min 0,0 UV-I 0 W/m 5,1 km/h (1 Bft)
29.03.2014 01:00 8,7 C 6,7 C 72 % 1018,6 hPa 0,0 l/m 0 min 0 min 0,0 UV-I 0 W/m 15,4 km/h (3 Bft)
29.03.2014 01:03 8,7 C 6,7 C 72 % 1018,5 hPa 0,0 l/m 0 min 0 min 0,0 UV-I 0 W/m 10,3 km/h (2 Bft)
29.03.2014 01:04 8,7 C 6,7 C 72 % 1018,5 hPa 0,0 l/m 0 min 0 min 0,0 UV-I 0 W/m 5,1 km/h (1 Bft)
29.03.2014 01:06 8,7 C 6,7 C 72 % 1018,5 hPa 0,0 l/m 0 min 0 min 0,0 UV-I 0 W/m 10,3 km/h (2 Bft)
29.03.2014 01:08 8,7 C 6,7 C 73 % 1018,5 hPa 0,0 l/m 0 min 0 min 0,0 UV-I 0 W/m 12,9 km/h (3 Bft)
29.03.2014 01:10 8,6 C 6,7 C 73 % 1018,5 hPa 0,0 l/m 0 min 0 min 0,0 UV-I 0 W/m 7,7 km/h (2 Bft)
29.03.2014 01:12 8,6 C 6,7 C 73 % 1018,5 hPa 0,0 l/m 0 min 0 min 0,0 UV-I 0 W/m 10,3 km/h (2 Bft)
29.03.2014 01:14 8,6 C 6,7 C 73 % 1018,5 hPa 0,0 l/m 0 min 0 min 0,0 UV-I 0 W/m 12,9 km/h (3 Bft)
29.03.2014 01:16 8,6 C 6,7 C 73 % 1018,6 hPa 0,0 l/m 0 min 0 min 0,0 UV-I 0 W/m 7,7 km/h (2 Bft)
29.03.2014 01:18 8,6 C 6,7 C 73 % 1018,5 hPa 0,0 l/m 0 min 0 min 0,0 UV-I 0 W/m 2,6 km/h (1 Bft)
29.03.2014 01:20 8,5 C 6,7 C 73 % 1018,5 hPa 0,0 l/m 0 min 0 min 0,0 UV-I 0 W/m 15,4 km/h (3 Bft)
29.03.2014 01:22 8,5 C 6,7 C 74 % 1018,5 hPa 0,0 l/m 0 min 0 min 0,0 UV-I 0 W/m 7,7 km/h (2 Bft)
29.03.2014 01:24 8,4 C 6,7 C 74 % 1018,5 hPa 0,0 l/m 0 min 0 min 0,0 UV-I 0 W/m 12,9 km/h (3 Bft)
29.03.2014 01:26 8,4 C 6,7 C 74 % 1018,5 hPa 0,0 l/m 0 min 0 min 0,0 UV-I 0 W/m 10,3 km/h (2 Bft)
29.03.2014 01:28 8,4 C 6,7 C 74 % 1018,5 hPa 0,0 l/m 0 min 0 min 0,0 UV-I 0 W/m 10,3 km/h (2 Bft)
29.03.2014 01:30 8,4 C 6,7 C 74 % 1018,6 hPa 0,0 l/m 0 min 0 min 0,0 UV-I 0 W/m 12,9 km/h (3 Bft)
29.03.2014 01:32 8,4 C 6,7 C 74 % 1018,5 hPa 0,0 l/m 0 min 0 min 0,0 UV-I 0 W/m 12,9 km/h (3 Bft)
29.03.2014 01:34 8,4 C 6,7 C 74 % 1018,5 hPa 0,0 l/m 0 min 0 min 0,0 UV-I 0 W/m 15,4 km/h (3 Bft)
29.03.2014 01:36 8,4 C 6,7 C 74 % 1018,5 hPa 0,0 l/m 0 min 0 min 0,0 UV-I 0 W/m 10,3 km/h (2 Bft)
29.03.2014 01:38 8,4 C 6,7 C 74 % 1018,5 hPa 0,0 l/m 0 min 0 min 0,0 UV-I 0 W/m 10,3 km/h (2 Bft)
29.03.2014 01:40 8,4 C 6,7 C 74 % 1018,5 hPa 0,0 l/m 0 min 0 min 0,0 UV-I 0 W/m 7,7 km/h (2 Bft)
29.03.2014 01:42 8,4 C 6,7 C 75 % 1018,5 hPa 0,0 l/m 0 min 0 min 0,0 UV-I 0 W/m 7,7 km/h (2 Bft)
29.03.2014 01:44 8,3 C 6,7 C 75 % 1018,5 hPa 0,0 l/m 0 min 0 min 0,0 UV-I 0 W/m 12,9 km/h (3 Bft)
29.03.2014 01:46 8,3 C 6,7 C 75 % 1018,5 hPa 0,0 l/m 0 min 0 min 0,0 UV-I 0 W/m 12,9 km/h (3 Bft)
29.03.2014 01:48 8,3 C 6,7 C 75 % 1018,5 hPa 0,0 l/m 0 min 0 min 0,0 UV-I 0 W/m 15,4 km/h (3 Bft)
29.03.2014 01:50 8,3 C 6,7 C 75 % 1018,5 hPa 0,0 l/m 0 min 0 min 0,0 UV-I 0 W/m 10,3 km/h (2 Bft)
29.03.2014 01:52 8,3 C 6,7 C 75 % 1018,5 hPa 0,0 l/m 0 min 0 min 0,0 UV-I 0 W/m 12,9 km/h (3 Bft)
29.03.2014 01:54 8,4 C 6,7 C 75 % 1018,5 hPa 0,0 l/m 0 min 0 min 0,0 UV-I 0 W/m 5,1 km/h (1 Bft)
29.03.2014 01:56 8,4 C 6,7 C 75 % 1018,5 hPa 0,0 l/m 0 min 0 min 0,0 UV-I 0 W/m 10,3 km/h (2 Bft)
29.03.2014 01:58 8,3 C 6,7 C 75 % 1018,5 hPa 0,0 l/m 0 min 0 min 0,0 UV-I 0 W/m 12,9 km/h (3 Bft)
29.03.2014 02:00 8,3 C 6,7 C 75 % 1018,5 hPa 0,0 l/m 0 min 0 min 0,0 UV-I 0 W/m 5,1 km/h (1 Bft)
29.03.2014 02:02 8,3 C 6,7 C 75 % 1018,5 hPa 0,0 l/m 0 min 0 min 0,0 UV-I 0 W/m 10,3 km/h (2 Bft)
29.03.2014 02:06 8,3 C 6,7 C 75 % 1018,5 hPa 0,0 l/m 0 min 0 min 0,0 UV-I 0 W/m 15,4 km/h (3 Bft)
29.03.2014 02:08 8,3 C 6,7 C 75 % 1018,5 hPa 0,0 l/m 0 min 0 min 0,0 UV-I 0 W/m 12,9 km/h (3 Bft)
29.03.2014 02:10 8,3 C 6,7 C 75 % 1018,5 hPa 0,0 l/m 0 min 0 min 0,0 UV-I 0 W/m 15,4 km/h (3 Bft)
29.03.2014 02:12 8,3 C 6,7 C 75 % 1018,5 hPa 0,0 l/m 0 min 0 min 0,0 UV-I 0 W/m 28,3 km/h (4 Bft)
29.03.2014 02:14 8,3 C 6,7 C 75 % 1018,5 hPa 0,0 l/m 0 min 0 min 0,0 UV-I 0 W/m 18,0 km/h (3 Bft)
29.03.2014 02:16 8,3 C 6,7 C 75 % 1018,5 hPa 0,0 l/m 0 min 0 min 0,0 UV-I 0 W/m 25,7 km/h (4 Bft)
29.03.2014 02:18 8,3 C 6,7 C 75 % 1018,5 hPa 0,0 l/m 0 min 0 min 0,0 UV-I 0 W/m 20,6 km/h (4 Bft)
29.03.2014 02:20 8,3 C 6,7 C 75 % 1018,6 hPa 0,0 l/m 0 min 0 min 0,0 UV-I 0 W/m 7,7 km/h (2 Bft)
29.03.2014 02:22 8,2 C 6,7 C 75 % 1018,5 hPa 0,0 l/m 0 min 0 min 0,0 UV-I 0 W/m 18,0 km/h (3 Bft)
29.03.2014 02:24 8,2 C 6,7 C 76 % 1018,6 hPa 0,0 l/m 0 min 0 min 0,0 UV-I 0 W/m 7,7 km/h (2 Bft)
29.03.2014 02:26 8,1 C 6,7 C 76 % 1018,6 hPa 0,0 l/m 0 min 0 min 0,0 UV-I 0 W/m 10,3 km/h (2 Bft)
29.03.2014 02:28 8,1 C 6,7 C 76 % 1018,5 hPa 0,0 l/m 0 min 0 min 0,0 UV-I 0 W/m 10,3 km/h (2 Bft)
29.03.2014 02:30 8,1 C 6,7 C 76 % 1018,5 hPa 0,0 l/m 0 min 0 min 0,0 UV-I 0 W/m 18,0 km/h (3 Bft)
29.03.2014 02:32 8,1 C 6,1 C 76 % 1018,6 hPa 0,0 l/m 0 min 0 min 0,0 UV-I 0 W/m 12,9 km/h (3 Bft)
29.03.2014 02:34 8,1 C 6,7 C 76 % 1018,5 hPa 0,0 l/m 0 min 0 min 0,0 UV-I 0 W/m 15,4 km/h (3 Bft)
29.03.2014 02:36 8,1 C 6,7 C 76 % 1018,5 hPa 0,0 l/m 0 min 0 min 0,0 UV-I 0 W/m 15,4 km/h (3 Bft)
29.03.2014 02:38 8,1 C 6,7 C 76 % 1018,5 hPa 0,0 l/m 0 min 0 min 0,0 UV-I 0 W/m 12,9 km/h (3 Bft)
29.03.2014 02:40 8,1 C 6,7 C 76 % 1018,6 hPa 0,0 l/m 0 min 0 min 0,0 UV-I 0 W/m 18,0 km/h (3 Bft)
29.03.2014 02:42 8,1 C 6,7 C 76 % 1018,5 hPa 0,0 l/m 0 min 0 min 0,0 UV-I 0 W/m 12,9 km/h (3 Bft)
29.03.2014 02:44 8,0 C 6,1 C 76 % 1018,5 hPa 0,0 l/m 0 min 0 min 0,0 UV-I 0 W/m 18,0 km/h (3 Bft)
29.03.2014 02:46 8,0 C 6,1 C 77 % 1018,6 hPa 0,0 l/m 0 min 0 min 0,0 UV-I 0 W/m 18,0 km/h (3 Bft)
29.03.2014 02:48 7,9 C 6,1 C 77 % 1018,5 hPa 0,0 l/m 0 min 0 min 0,0 UV-I 0 W/m 15,4 km/h (3 Bft)
29.03.2014 02:50 7,9 C 6,1 C 77 % 1018,6 hPa 0,0 l/m 0 min 0 min 0,0 UV-I 0 W/m 12,9 km/h (3 Bft)
29.03.2014 02:52 7,9 C 6,1 C 77 % 1018,5 hPa 0,0 l/m 0 min 0 min 0,0 UV-I 0 W/m 12,9 km/h (3 Bft)
29.03.2014 02:54 7,9 C 6,1 C 77 % 1018,6 hPa 0,0 l/m 0 min 0 min 0,0 UV-I 0 W/m 12,9 km/h (3 Bft)
29.03.2014 02:56 7,9 C 6,1 C 77 % 1018,5 hPa 0,0 l/m 0 min 0 min 0,0 UV-I 0 W/m 15,4 km/h (3 Bft)
29.03.2014 02:58 7,8 C 6,1 C 77 % 1018,5 hPa 0,0 l/m 0 min 0 min 0,0 UV-I 0 W/m 7,7 km/h (2 Bft)
29.03.2014 03:00 7,8 C 6,1 C 77 % 1018,5 hPa 0,0 l/m 0 min 0 min 0,0 UV-I 0 W/m 15,4 km/h (3 Bft)
29.03.2014 03:02 7,8 C 6,1 C 77 % 1018,5 hPa 0,0 l/m 0 min 0 min 0,0 UV-I 0 W/m 15,4 km/h (3 Bft)
29.03.2014 03:04 7,8 C 6,1 C 78 % 1018,5 hPa 0,0 l/m 0 min 0 min 0,0 UV-I 0 W/m 12,9 km/h (3 Bft)
29.03.2014 03:06 7,8 C 6,1 C 78 % 1018,5 hPa 0,0 l/m 0 min 0 min 0,0 UV-I 0 W/m 12,9 km/h (3 Bft)
29.03.2014 03:08 7,8 C 6,1 C 78 % 1018,5 hPa 0,0 l/m 0 min 0 min 0,0 UV-I 0 W/m 18,0 km/h (3 Bft)
29.03.2014 03:10 7,8 C 6,1 C 78 % 1018,5 hPa 0,0 l/m 0 min 0 min 0,0 UV-I 0 W/m 12,9 km/h (3 Bft)
29.03.2014 03:12 7,8 C 6,1 C 78 % 1018,5 hPa 0,0 l/m 0 min 0 min 0,0 UV-I 0 W/m 18,0 km/h (3 Bft)
29.03.2014 03:14 7,8 C 6,1 C 78 % 1018,4 hPa 0,0 l/m 0 min 0 min 0,0 UV-I 0 W/m 7,7 km/h (2 Bft)
29.03.2014 03:16 7,8 C 6,1 C 78 % 1018,5 hPa 0,0 l/m 0 min 0 min 0,0 UV-I 0 W/m 18,0 km/h (3 Bft)
29.03.2014 03:18 7,8 C 6,1 C 78 % 1018,5 hPa 0,0 l/m 0 min 0 min 0,0 UV-I 0 W/m 10,3 km/h (2 Bft)
29.03.2014 03:20 7,8 C 6,1 C 78 % 1018,5 hPa 0,0 l/m 0 min 0 min 0,0 UV-I 0 W/m 12,9 km/h (3 Bft)
29.03.2014 03:22 7,8 C 6,1 C 78 % 1018,4 hPa 0,0 l/m 0 min 0 min 0,0 UV-I 0 W/m 12,9 km/h (3 Bft)
29.03.2014 03:24 7,8 C 6,1 C 78 % 1018,5 hPa 0,0 l/m 0 min 0 min 0,0 UV-I 0 W/m 7,7 km/h (2 Bft)
29.03.2014 03:26 7,8 C 6,1 C 78 % 1018,5 hPa 0,0 l/m 0 min 0 min 0,0 UV-I 0 W/m 12,9 km/h (3 Bft)
29.03.2014 03:28 7,7 C 6,1 C 78 % 1018,4 hPa 0,0 l/m 0 min 0 min 0,0 UV-I 0 W/m 10,3 km/h (2 Bft)
29.03.2014 03:30 7,7 C 6,1 C 78 % 1018,4 hPa 0,0 l/m 0 min 0 min 0,0 UV-I 0 W/m 10,3 km/h (2 Bft)
29.03.2014 03:32 7,7 C 6,1 C 78 % 1018,4 hPa 0,0 l/m 0 min 0 min 0,0 UV-I 0 W/m 15,4 km/h (3 Bft)
29.03.2014 03:34 7,7 C 6,1 C 78 % 1018,4 hPa 0,0 l/m 0 min 0 min 0,0 UV-I 0 W/m 12,9 km/h (3 Bft)
29.03.2014 03:36 7,7 C 6,1 C 78 % 1018,4 hPa 0,0 l/m 0 min 0 min 0,0 UV-I 0 W/m 15,4 km/h (3 Bft)
29.03.2014 03:38 7,7 C 6,1 C 78 % 1018,5 hPa 0,0 l/m 0 min 0 min 0,0 UV-I 0 W/m 12,9 km/h (3 Bft)
29.03.2014 03:40 7,7 C 6,1 C 78 % 1018,5 hPa 0,0 l/m 0 min 0 min 0,0 UV-I 0 W/m 10,3 km/h (2 Bft)
29.03.2014 03:42 7,7 C 6,1 C 78 % 1018,5 hPa 0,0 l/m 0 min 0 min 0,0 UV-I 0 W/m 7,7 km/h (2 Bft)
29.03.2014 03:44 7,6 C 6,1 C 79 % 1018,5 hPa 0,0 l/m 0 min 0 min 0,0 UV-I 0 W/m 18,0 km/h (3 Bft)
29.03.2014 03:46 7,6 C 6,1 C 79 % 1018,5 hPa 0,0 l/m 0 min 0 min 0,0 UV-I 0 W/m 23,2 km/h (4 Bft)
29.03.2014 03:48 7,6 C 6,1 C 79 % 1018,5 hPa 0,0 l/m 0 min 0 min 0,0 UV-I 0 W/m 12,9 km/h (3 Bft)
29.03.2014 03:50 7,6 C 6,1 C 79 % 1018,5 hPa 0,0 l/m 0 min 0 min 0,0 UV-I 0 W/m 12,9 km/h (3 Bft)
29.03.2014 03:52 7,6 C 6,1 C 79 % 1018,6 hPa 0,0 l/m 0 min 0 min 0,0 UV-I 0 W/m 10,3 km/h (2 Bft)
29.03.2014 03:54 7,6 C 6,1 C 79 % 1018,6 hPa 0,0 l/m 0 min 0 min 0,0 UV-I 0 W/m 0,0 km/h (0 Bft)
29.03.2014 03:56 7,6 C 6,1 C 79 % 1018,5 hPa 0,0 l/m 0 min 0 min 0,0 UV-I 0 W/m 10,3 km/h (2 Bft)
29.03.2014 03:58 7,6 C 6,1 C 79 % 1018,5 hPa 0,0 l/m 0 min 0 min 0,0 UV-I 0 W/m 10,3 km/h (2 Bft)
29.03.2014 04:00 7,5 C 6,1 C 79 % 1018,5 hPa 0,0 l/m 0 min 0 min 0,0 UV-I 0 W/m 12,9 km/h (3 Bft)
29.03.2014 04:02 7,5 C 6,1 C 79 % 1018,6 hPa 0,0 l/m 0 min 0 min 0,0 UV-I 0 W/m 12,9 km/h (3 Bft)
29.03.2014 04:06 7,4 C 6,1 C 79 % 1018,6 hPa 0,0 l/m 0 min 0 min 0,0 UV-I 0 W/m 15,4 km/h (3 Bft)
29.03.2014 04:08 7,4 C 6,1 C 79 % 1018,6 hPa 0,0 l/m 0 min 0 min 0,0 UV-I 0 W/m 18,0 km/h (3 Bft)
29.03.2014 04:10 7,4 C 5,6 C 79 % 1018,6 hPa 0,0 l/m 0 min 0 min 0,0 UV-I 0 W/m 15,4 km/h (3 Bft)
29.03.2014 04:12 7,4 C 5,6 C 79 % 1018,6 hPa 0,0 l/m 0 min 0 min 0,0 UV-I 0 W/m 15,4 km/h (3 Bft)
29.03.2014 04:14 7,4 C 5,6 C 79 % 1018,6 hPa 0,0 l/m 0 min 0 min 0,0 UV-I 0 W/m 20,6 km/h (4 Bft)
29.03.2014 04:16 7,4 C 5,6 C 79 % 1018,6 hPa 0,0 l/m 0 min 0 min 0,0 UV-I 0 W/m 7,7 km/h (2 Bft)
29.03.2014 04:18 7,4 C 5,6 C 79 % 1018,5 hPa 0,0 l/m 0 min 0 min 0,0 UV-I 0 W/m 12,9 km/h (3 Bft)
29.03.2014 04:20 7,4 C 5,6 C 79 % 1018,6 hPa 0,0 l/m 0 min 0 min 0,0 UV-I 0 W/m 10,3 km/h (2 Bft)
29.03.2014 04:22 7,3 C 5,6 C 80 % 1018,5 hPa 0,0 l/m 0 min 0 min 0,0 UV-I 0 W/m 12,9 km/h (3 Bft)
29.03.2014 04:24 7,3 C 5,6 C 80 % 1018,5 hPa 0,0 l/m 0 min 0 min 0,0 UV-I 0 W/m 10,3 km/h (2 Bft)
29.03.2014 04:26 7,3 C 5,6 C 80 % 1018,6 hPa 0,0 l/m 0 min 0 min 0,0 UV-I 0 W/m 23,2 km/h (4 Bft)
29.03.2014 04:28 7,3 C 5,6 C 80 % 1018,5 hPa 0,0 l/m 0 min 0 min 0,0 UV-I 0 W/m 12,9 km/h (3 Bft)
29.03.2014 04:30 7,2 C 5,6 C 80 % 1018,5 hPa 0,0 l/m 0 min 0 min 0,0 UV-I 0 W/m 12,9 km/h (3 Bft)
29.03.2014 04:32 7,2 C 5,6 C 80 % 1018,5 hPa 0,0 l/m 0 min 0 min 0,0 UV-I 0 W/m 10,3 km/h (2 Bft)
29.03.2014 04:34 7,2 C 5,6 C 80 % 1018,6 hPa 0,0 l/m 0 min 0 min 0,0 UV-I 0 W/m 12,9 km/h (3 Bft)
29.03.2014 04:36 7,2 C 5,6 C 80 % 1018,6 hPa 0,0 l/m 0 min 0 min 0,0 UV-I 0 W/m 12,9 km/h (3 Bft)
29.03.2014 04:38 7,1 C 5,6 C 80 % 1018,6 hPa 0,0 l/m 0 min 0 min 0,0 UV-I 0 W/m 10,3 km/h (2 Bft)
29.03.2014 04:40 7,1 C 5,6 C 80 % 1018,5 hPa 0,0 l/m 0 min 0 min 0,0 UV-I 0 W/m 12,9 km/h (3 Bft)
29.03.2014 04:42 7,1 C 5,6 C 81 % 1018,6 hPa 0,0 l/m 0 min 0 min 0,0 UV-I 0 W/m 10,3 km/h (2 Bft)
29.03.2014 04:44 7,1 C 5,6 C 81 % 1018,5 hPa 0,0 l/m 0 min 0 min 0,0 UV-I 0 W/m 10,3 km/h (2 Bft)
29.03.2014 04:46 7,1 C 5,6 C 81 % 1018,6 hPa 0,0 l/m 0 min 0 min 0,0 UV-I 0 W/m 15,4 km/h (3 Bft)
29.03.2014 04:48 7,0 C 5,6 C 81 % 1018,6 hPa 0,0 l/m 0 min 0 min 0,0 UV-I 0 W/m 12,9 km/h (3 Bft)
29.03.2014 04:50 7,0 C 5,6 C 81 % 1018,6 hPa 0,0 l/m 0 min 0 min 0,0 UV-I 0 W/m 10,3 km/h (2 Bft)
29.03.2014 04:52 6,9 C 5,6 C 81 % 1018,6 hPa 0,0 l/m 0 min 0 min 0,0 UV-I 0 W/m 10,3 km/h (2 Bft)
29.03.2014 04:54 6,9 C 5,6 C 81 % 1018,6 hPa 0,0 l/m 0 min 0 min 0,0 UV-I 0 W/m 7,7 km/h (2 Bft)
29.03.2014 04:56 6,9 C 5,6 C 81 % 1018,7 hPa 0,0 l/m 0 min 0 min 0,0 UV-I 0 W/m 15,4 km/h (3 Bft)
29.03.2014 04:58 6,9 C 5,6 C 81 % 1018,7 hPa 0,0 l/m 0 min 0 min 0,0 UV-I 0 W/m 15,4 km/h (3 Bft)
29.03.2014 05:00 6,9 C 5,6 C 81 % 1018,7 hPa 0,0 l/m 0 min 0 min 0,0 UV-I 0 W/m 12,9 km/h (3 Bft)
29.03.2014 05:02 6,9 C 5,6 C 81 % 1018,6 hPa 0,0 l/m 0 min 0 min 0,0 UV-I 0 W/m 10,3 km/h (2 Bft)
29.03.2014 05:06 6,9 C 5,6 C 81 % 1018,7 hPa 0,0 l/m 0 min 0 min 0,0 UV-I 0 W/m 12,9 km/h (3 Bft)
29.03.2014 05:08 6,9 C 5,6 C 82 % 1018,6 hPa 0,0 l/m 0 min 0 min 0,0 UV-I 0 W/m 10,3 km/h (2 Bft)
29.03.2014 05:10 6,9 C 5,6 C 82 % 1018,6 hPa 0,0 l/m 0 min 0 min 0,0 UV-I 0 W/m 12,9 km/h (3 Bft)
29.03.2014 05:12 6,9 C 5,6 C 82 % 1018,7 hPa 0,0 l/m 0 min 0 min 0,0 UV-I 0 W/m 10,3 km/h (2 Bft)
29.03.2014 05:14 6,9 C 5,6 C 82 % 1018,7 hPa 0,0 l/m 0 min 0 min 0,0 UV-I 0 W/m 7,7 km/h (2 Bft)
29.03.2014 05:16 6,8 C 5,0 C 82 % 1018,6 hPa 0,0 l/m 0 min 0 min 0,0 UV-I 0 W/m 5,1 km/h (1 Bft)
29.03.2014 05:18 6,8 C 5,0 C 82 % 1018,6 hPa 0,0 l/m 0 min 0 min 0,0 UV-I 0 W/m 10,3 km/h (2 Bft)
29.03.2014 05:20 6,8 C 5,0 C 82 % 1018,6 hPa 0,0 l/m 0 min 0 min 0,0 UV-I 0 W/m 18,0 km/h (3 Bft)
29.03.2014 05:22 6,8 C 5,0 C 82 % 1018,6 hPa 0,0 l/m 0 min 0 min 0,0 UV-I 0 W/m 15,4 km/h (3 Bft)
29.03.2014 05:24 6,9 C 5,0 C 82 % 1018,7 hPa 0,0 l/m 0 min 0 min 0,0 UV-I 0 W/m 12,9 km/h (3 Bft)
29.03.2014 05:26 6,9 C 5,6 C 82 % 1018,7 hPa 0,0 l/m 0 min 0 min 0,0 UV-I 0 W/m 18,0 km/h (3 Bft)
29.03.2014 05:28 6,9 C 5,6 C 82 % 1018,7 hPa 0,0 l/m 0 min 0 min 0,0 UV-I 0 W/m 15,4 km/h (3 Bft)
29.03.2014 05:30 6,9 C 5,6 C 81 % 1018,7 hPa 0,0 l/m 0 min 0 min 0,0 UV-I 0 W/m 10,3 km/h (2 Bft)
29.03.2014 05:32 6,9 C 5,6 C 81 % 1018,7 hPa 0,0 l/m 0 min 0 min 0,0 UV-I 0 W/m 12,9 km/h (3 Bft)
29.03.2014 05:34 6,9 C 5,6 C 81 % 1018,7 hPa 0,0 l/m 0 min 0 min 0,0 UV-I 0 W/m 12,9 km/h (3 Bft)
29.03.2014 05:36 7,0 C 5,6 C 81 % 1018,7 hPa 0,0 l/m 0 min 0 min 0,0 UV-I 0 W/m 18,0 km/h (3 Bft)
29.03.2014 05:38 7,0 C 5,6 C 81 % 1018,7 hPa 0,0 l/m 0 min 0 min 0,0 UV-I 0 W/m 15,4 km/h (3 Bft)
29.03.2014 05:40 7,0 C 5,6 C 81 % 1018,8 hPa 0,0 l/m 0 min 0 min 0,0 UV-I 0 W/m 10,3 km/h (2 Bft)
29.03.2014 05:42 7,1 C 5,6 C 81 % 1018,8 hPa 0,0 l/m 0 min 0 min 0,0 UV-I 0 W/m 12,9 km/h (3 Bft)
29.03.2014 05:44 7,1 C 5,6 C 81 % 1018,7 hPa 0,0 l/m 0 min 0 min 0,0 UV-I 0 W/m 12,9 km/h (3 Bft)
29.03.2014 05:46 7,1 C 5,6 C 81 % 1018,8 hPa 0,0 l/m 0 min 0 min 0,0 UV-I 0 W/m 15,4 km/h (3 Bft)
29.03.2014 05:48 7,1 C 5,6 C 81 % 1018,7 hPa 0,0 l/m 0 min 0 min 0,0 UV-I 0 W/m 15,4 km/h (3 Bft)
29.03.2014 05:50 7,1 C 5,6 C 81 % 1018,8 hPa 0,0 l/m 0 min 0 min 0,0 UV-I 0 W/m 12,9 km/h (3 Bft)
29.03.2014 05:52 7,1 C 5,6 C 81 % 1018,8 hPa 0,0 l/m 0 min 0 min 0,0 UV-I 0 W/m 15,4 km/h (3 Bft)
29.03.2014 05:54 7,1 C 5,6 C 81 % 1018,8 hPa 0,0 l/m 0 min 0 min 0,0 UV-I 0 W/m 15,4 km/h (3 Bft)
29.03.2014 05:56 7,1 C 5,6 C 81 % 1018,9 hPa 0,0 l/m 0 min 0 min 0,0 UV-I 0 W/m 18,0 km/h (3 Bft)
29.03.2014 05:58 7,1 C 5,6 C 81 % 1018,8 hPa 0,0 l/m 0 min 0 min 0,0 UV-I 0 W/m 20,6 km/h (4 Bft)
29.03.2014 06:00 7,1 C 5,6 C 81 % 1018,8 hPa 0,0 l/m 0 min 0 min 0,0 UV-I 0 W/m 15,4 km/h (3 Bft)
29.03.2014 06:02 7,1 C 5,6 C 81 % 1018,8 hPa 0,0 l/m 0 min 0 min 0,0 UV-I 0 W/m 10,3 km/h (2 Bft)
29.03.2014 06:06 7,1 C 5,6 C 81 % 1018,8 hPa 0,0 l/m 0 min 0 min 0,0 UV-I 0 W/m 18,0 km/h (3 Bft)
29.03.2014 06:08 7,1 C 5,6 C 81 % 1018,8 hPa 0,0 l/m 0 min 0 min 0,0 UV-I 0 W/m 12,9 km/h (3 Bft)
29.03.2014 06:10 7,1 C 5,6 C 81 % 1018,8 hPa 0,0 l/m 0 min 0 min 0,0 UV-I 0 W/m 15,4 km/h (3 Bft)
29.03.2014 06:12 7,1 C 5,6 C 81 % 1018,8 hPa 0,0 l/m 0 min 0 min 0,0 UV-I 0 W/m 20,6 km/h (4 Bft)
29.03.2014 06:14 7,1 C 5,6 C 81 % 1018,8 hPa 0,0 l/m 0 min 0 min 0,0 UV-I 5 W/m 12,9 km/h (3 Bft)
29.03.2014 06:16 7,1 C 5,6 C 81 % 1018,9 hPa 0,0 l/m 0 min 0 min 0,0 UV-I 5 W/m 18,0 km/h (3 Bft)
29.03.2014 06:20 7,1 C 5,6 C 81 % 1018,9 hPa 0,0 l/m 0 min 0 min 0,0 UV-I 5 W/m 18,0 km/h (3 Bft)
29.03.2014 06:25 7,1 C 5,6 C 81 % 1019,0 hPa 0,0 l/m 0 min 0 min 0,0 UV-I 7 W/m 15,4 km/h (3 Bft)
29.03.2014 06:32 7,1 C 5,6 C 81 % 1019,0 hPa 0,0 l/m 0 min 0 min 0,0 UV-I 11 W/m 20,6 km/h (4 Bft)
29.03.2014 06:34 7,1 C 5,6 C 81 % 1019,0 hPa 0,0 l/m 0 min 0 min 0,0 UV-I 12 W/m 15,4 km/h (3 Bft)
29.03.2014 06:36 7,2 C 5,6 C 81 % 1019,0 hPa 0,0 l/m 0 min 0 min 0,0 UV-I 12 W/m 12,9 km/h (3 Bft)
29.03.2014 06:38 7,2 C 5,6 C 81 % 1019,0 hPa 0,0 l/m 0 min 0 min 0,0 UV-I 14 W/m 12,9 km/h (3 Bft)
29.03.2014 06:40 7,2 C 5,6 C 81 % 1019,0 hPa 0,0 l/m 0 min 0 min 0,0 UV-I 16 W/m 18,0 km/h (3 Bft)
29.03.2014 06:42 7,2 C 5,6 C 81 % 1019,1 hPa 0,0 l/m 0 min 0 min 0,0 UV-I 18 W/m 15,4 km/h (3 Bft)
29.03.2014 06:44 7,2 C 5,6 C 81 % 1019,1 hPa 0,0 l/m 0 min 0 min 0,0 UV-I 19 W/m 20,6 km/h (4 Bft)
29.03.2014 06:46 7,2 C 5,6 C 81 % 1019,1 hPa 0,0 l/m 0 min 0 min 0,0 UV-I 19 W/m 7,7 km/h (2 Bft)
29.03.2014 06:48 7,2 C 5,6 C 81 % 1019,0 hPa 0,0 l/m 0 min 0 min 0,0 UV-I 21 W/m 15,4 km/h (3 Bft)
29.03.2014 06:50 7,2 C 5,6 C 81 % 1019,1 hPa 0,0 l/m 0 min 0 min 0,0 UV-I 23 W/m 15,4 km/h (3 Bft)
29.03.2014 06:52 7,2 C 5,6 C 81 % 1019,1 hPa 0,0 l/m 0 min 0 min 0,0 UV-I 25 W/m 12,9 km/h (3 Bft)
29.03.2014 06:54 7,2 C 5,6 C 81 % 1019,1 hPa 0,0 l/m 0 min 0 min 0,0 UV-I 25 W/m 12,9 km/h (3 Bft)
29.03.2014 06:56 7,2 C 5,6 C 81 % 1019,1 hPa 0,0 l/m 0 min 0 min 0,0 UV-I 26 W/m 15,4 km/h (3 Bft)
29.03.2014 06:58 7,2 C 5,6 C 81 % 1019,1 hPa 0,0 l/m 0 min 0 min 0,0 UV-I 28 W/m 18,0 km/h (3 Bft)
29.03.2014 07:00 7,2 C 5,6 C 81 % 1019,1 hPa 0,0 l/m 0 min 0 min 0,0 UV-I 30 W/m 12,9 km/h (3 Bft)
29.03.2014 07:02 7,3 C 5,6 C 81 % 1019,2 hPa 0,0 l/m 0 min 0 min 0,0 UV-I 32 W/m 15,4 km/h (3 Bft)
29.03.2014 07:04 7,3 C 5,6 C 81 % 1019,1 hPa 0,0 l/m 0 min 0 min 0,0 UV-I 32 W/m 20,6 km/h (4 Bft)
29.03.2014 07:06 7,3 C 5,6 C 80 % 1019,1 hPa 0,0 l/m 0 min 0 min 0,0 UV-I 33 W/m 18,0 km/h (3 Bft)
29.03.2014 07:08 7,3 C 5,6 C 80 % 1019,1 hPa 0,0 l/m 0 min 0 min 0,0 UV-I 35 W/m 18,0 km/h (3 Bft)
29.03.2014 07:10 7,3 C 6,1 C 81 % 1019,1 hPa 0,0 l/m 0 min 0 min 0,0 UV-I 35 W/m 12,9 km/h (3 Bft)
29.03.2014 07:12 7,3 C 6,1 C 81 % 1019,1 hPa 0,0 l/m 0 min 0 min 0,0 UV-I 37 W/m 12,9 km/h (3 Bft)
29.03.2014 07:14 7,4 C 6,1 C 81 % 1019,1 hPa 0,0 l/m 0 min 0 min 0,0 UV-I 39 W/m 12,9 km/h (3 Bft)
29.03.2014 07:16 7,4 C 6,1 C 81 % 1019,2 hPa 0,0 l/m 0 min 0 min 0,0 UV-I 39 W/m 12,9 km/h (3 Bft)
29.03.2014 07:18 7,4 C 6,1 C 81 % 1019,1 hPa 0,0 l/m 0 min 0 min 0,0 UV-I 40 W/m 12,9 km/h (3 Bft)
29.03.2014 07:20 7,4 C 6,1 C 81 % 1019,1 hPa 0,0 l/m 0 min 0 min 0,0 UV-I 40 W/m 12,9 km/h (3 Bft)
29.03.2014 07:22 7,4 C 6,1 C 81 % 1019,2 hPa 0,0 l/m 0 min 0 min 0,0 UV-I 42 W/m 18,0 km/h (3 Bft)
29.03.2014 07:24 7,5 C 6,1 C 81 % 1019,2 hPa 0,0 l/m 0 min 0 min 0,0 UV-I 44 W/m 12,9 km/h (3 Bft)
29.03.2014 07:26 7,6 C 6,1 C 80 % 1019,2 hPa 0,0 l/m 0 min 0 min 0,0 UV-I 44 W/m 12,9 km/h (3 Bft)
29.03.2014 07:28 7,6 C 6,1 C 80 % 1019,2 hPa 0,0 l/m 0 min 0 min 0,0 UV-I 46 W/m 18,0 km/h (3 Bft)
29.03.2014 07:30 7,6 C 6,1 C 80 % 1019,2 hPa 0,0 l/m 0 min 0 min 0,0 UV-I 46 W/m 15,4 km/h (3 Bft)
29.03.2014 07:32 7,6 C 6,1 C 80 % 1019,3 hPa 0,0 l/m 0 min 0 min 0,0 UV-I 47 W/m 12,9 km/h (3 Bft)
29.03.2014 07:34 7,7 C 6,1 C 80 % 1019,3 hPa 0,0 l/m 0 min 0 min 0,0 UV-I 49 W/m 12,9 km/h (3 Bft)
29.03.2014 07:36 7,7 C 6,1 C 80 % 1019,2 hPa 0,0 l/m 0 min 0 min 0,0 UV-I 51 W/m 12,9 km/h (3 Bft)
29.03.2014 07:38 7,7 C 6,1 C 80 % 1019,2 hPa 0,0 l/m 0 min 0 min 0,0 UV-I 51 W/m 18,0 km/h (3 Bft)
29.03.2014 07:40 7,8 C 6,1 C 80 % 1019,3 hPa 0,0 l/m 0 min 0 min 0,0 UV-I 83 W/m 5,1 km/h (1 Bft)
29.03.2014 07:42 7,8 C 6,1 C 80 % 1019,3 hPa 0,0 l/m 2 min 0 min 0,0 UV-I 132 W/m 7,7 km/h (2 Bft)
29.03.2014 07:44 7,9 C 6,7 C 80 % 1019,3 hPa 0,0 l/m 2 min 0 min 0,0 UV-I 137 W/m 18,0 km/h (3 Bft)
29.03.2014 07:46 7,9 C 6,7 C 80 % 1019,3 hPa 0,0 l/m 2 min 0 min 0,0 UV-I 141 W/m 23,2 km/h (4 Bft)
29.03.2014 07:48 8,0 C 6,7 C 80 % 1019,2 hPa 0,0 l/m 2 min 0 min 0,0 UV-I 148 W/m 25,7 km/h (4 Bft)
29.03.2014 07:50 8,1 C 6,7 C 79 % 1019,2 hPa 0,0 l/m 2 min 0 min 0,0 UV-I 153 W/m 12,9 km/h (3 Bft)
29.03.2014 07:52 8,2 C 6,7 C 79 % 1019,1 hPa 0,0 l/m 2 min 0 min 0,0 UV-I 156 W/m 12,9 km/h (3 Bft)
29.03.2014 07:54 8,2 C 6,7 C 79 % 1019,2 hPa 0,0 l/m 2 min 0 min 0,0 UV-I 165 W/m 15,4 km/h (3 Bft)
29.03.2014 07:56 8,3 C 6,7 C 79 % 1019,3 hPa 0,0 l/m 2 min 0 min 0,0 UV-I 169 W/m 18,0 km/h (3 Bft)
29.03.2014 07:58 8,3 C 6,7 C 79 % 1019,2 hPa 0,0 l/m 2 min 0 min 0,0 UV-I 174 W/m 10,3 km/h (2 Bft)
29.03.2014 08:00 8,4 C 6,7 C 79 % 1019,2 hPa 0,0 l/m 2 min 0 min 0,0 UV-I 179 W/m 12,9 km/h (3 Bft)
29.03.2014 08:02 8,4 C 7,2 C 78 % 1019,4 hPa 0,0 l/m 2 min 0 min 0,0 UV-I 186 W/m 18,0 km/h (3 Bft)
29.03.2014 08:04 8,5 C 7,2 C 78 % 1019,4 hPa 0,0 l/m 2 min 0 min 0,0 UV-I 190 W/m 12,9 km/h (3 Bft)
29.03.2014 08:06 8,6 C 7,2 C 78 % 1019,4 hPa 0,0 l/m 2 min 0 min 0,0 UV-I 197 W/m 18,0 km/h (3 Bft)
29.03.2014 08:08 8,7 C 7,2 C 78 % 1019,3 hPa 0,0 l/m 2 min 0 min 0,0 UV-I 202 W/m 18,0 km/h (3 Bft)
29.03.2014 08:10 8,8 C 7,2 C 78 % 1019,2 hPa 0,0 l/m 2 min 0 min 0,0 UV-I 204 W/m 18,0 km/h (3 Bft)
29.03.2014 08:12 8,9 C 7,2 C 77 % 1019,3 hPa 0,0 l/m 2 min 0 min 0,0 UV-I 211 W/m 10,3 km/h (2 Bft)
29.03.2014 08:14 8,9 C 7,2 C 77 % 1019,3 hPa 0,0 l/m 2 min 0 min 0,0 UV-I 214 W/m 20,6 km/h (4 Bft)
29.03.2014 08:16 9,0 C 7,2 C 77 % 1019,4 hPa 0,0 l/m 2 min 0 min 0,0 UV-I 218 W/m 15,4 km/h (3 Bft)
29.03.2014 08:18 9,1 C 7,2 C 77 % 1019,4 hPa 0,0 l/m 2 min 0 min 0,0 UV-I 227 W/m 18,0 km/h (3 Bft)
29.03.2014 08:20 9,1 C 7,8 C 77 % 1019,4 hPa 0,0 l/m 2 min 0 min 0,0 UV-I 230 W/m 18,0 km/h (3 Bft)
29.03.2014 08:22 9,1 C 7,8 C 77 % 1019,4 hPa 0,0 l/m 2 min 0 min 0,0 UV-I 234 W/m 15,4 km/h (3 Bft)
29.03.2014 08:24 9,2 C 7,8 C 77 % 1019,4 hPa 0,0 l/m 2 min 0 min 0,0 UV-I 241 W/m 12,9 km/h (3 Bft)
29.03.2014 08:26 9,3 C 7,8 C 77 % 1019,4 hPa 0,0 l/m 2 min 0 min 0,0 UV-I 244 W/m 7,7 km/h (2 Bft)
29.03.2014 08:28 9,3 C 7,8 C 77 % 1019,4 hPa 0,0 l/m 2 min 0 min 0,0 UV-I 248 W/m 12,9 km/h (3 Bft)
29.03.2014 08:30 9,4 C 8,3 C 77 % 1019,4 hPa 0,0 l/m 2 min 0 min 0,0 UV-I 255 W/m 18,0 km/h (3 Bft)
29.03.2014 08:32 9,5 C 8,3 C 77 % 1019,5 hPa 0,0 l/m 2 min 0 min 0,0 UV-I 258 W/m 10,3 km/h (2 Bft)
29.03.2014 08:34 9,6 C 8,3 C 76 % 1019,5 hPa 0,0 l/m 2 min 0 min 0,0 UV-I 264 W/m 15,4 km/h (3 Bft)
29.03.2014 08:36 9,7 C 8,3 C 76 % 1019,5 hPa 0,0 l/m 2 min 0 min 0,0 UV-I 271 W/m 25,7 km/h (4 Bft)
29.03.2014 08:38 9,8 C 8,3 C 76 % 1019,5 hPa 0,0 l/m 2 min 0 min 0,0 UV-I 272 W/m 20,6 km/h (4 Bft)
29.03.2014 08:40 9,8 C 8,3 C 75 % 1019,5 hPa 0,0 l/m 2 min 0 min 0,0 UV-I 278 W/m 12,9 km/h (3 Bft)
29.03.2014 08:42 9,9 C 8,3 C 75 % 1019,5 hPa 0,0 l/m 2 min 0 min 0,0 UV-I 283 W/m 15,4 km/h (3 Bft)
29.03.2014 08:44 10,0 C 8,3 C 75 % 1019,5 hPa 0,0 l/m 2 min 0 min 0,0 UV-I 290 W/m 18,0 km/h (3 Bft)
29.03.2014 08:46 10,1 C 8,3 C 75 % 1019,5 hPa 0,0 l/m 2 min 0 min 0,0 UV-I 294 W/m 12,9 km/h (3 Bft)
29.03.2014 08:48 10,2 C 8,9 C 74 % 1019,5 hPa 0,0 l/m 2 min 0 min 0,0 UV-I 297 W/m 20,6 km/h (4 Bft)
29.03.2014 08:50 10,3 C 8,9 C 74 % 1019,5 hPa 0,0 l/m 2 min 0 min 0,0 UV-I 301 W/m 18,0 km/h (3 Bft)
29.03.2014 08:52 10,3 C 8,9 C 74 % 1019,6 hPa 0,0 l/m 2 min 0 min 0,0 UV-I 308 W/m 23,2 km/h (4 Bft)
29.03.2014 08:54 10,5 C 8,9 C 74 % 1019,5 hPa 0,0 l/m 2 min 0 min 0,0 UV-I 311 W/m 18,0 km/h (3 Bft)
29.03.2014 08:56 10,6 C 8,9 C 73 % 1019,6 hPa 0,0 l/m 2 min 0 min 0,0 UV-I 316 W/m 23,2 km/h (4 Bft)
29.03.2014 08:58 10,6 C 8,9 C 73 % 1019,6 hPa 0,0 l/m 2 min 0 min 0,0 UV-I 322 W/m 33,5 km/h (5 Bft)
29.03.2014 09:00 10,7 C 8,9 C 72 % 1019,6 hPa 0,0 l/m 2 min 0 min 0,0 UV-I 327 W/m 20,6 km/h (4 Bft)
29.03.2014 09:02 10,7 C 8,9 C 73 % 1019,6 hPa 0,0 l/m 2 min 0 min 0,0 UV-I 330 W/m 20,6 km/h (4 Bft)
29.03.2014 09:06 11,0 C 9,4 C 72 % 1019,7 hPa 0,0 l/m 2 min 0 min 0,0 UV-I 339 W/m 30,9 km/h (5 Bft)
29.03.2014 09:08 11,0 C 9,4 C 72 % 1019,7 hPa 0,0 l/m 2 min 0 min 0,0 UV-I 345 W/m 33,5 km/h (5 Bft)
29.03.2014 09:10 11,1 C 9,4 C 72 % 1019,8 hPa 0,0 l/m 2 min 0 min 0,0 UV-I 350 W/m 25,7 km/h (4 Bft)
29.03.2014 09:12 11,2 C 9,4 C 71 % 1019,8 hPa 0,0 l/m 2 min 0 min 0,0 UV-I 355 W/m 20,6 km/h (4 Bft)
29.03.2014 09:14 11,3 C 9,4 C 71 % 1019,8 hPa 0,0 l/m 2 min 0 min 0,0 UV-I 359 W/m 18,0 km/h (3 Bft)
29.03.2014 09:16 11,4 C 9,4 C 71 % 1019,8 hPa 0,0 l/m 2 min 0 min 0,0 UV-I 364 W/m 23,2 km/h (4 Bft)
29.03.2014 09:18 11,6 C 10,0 C 71 % 1019,7 hPa 0,0 l/m 2 min 0 min 0,0 UV-I 367 W/m 15,4 km/h (3 Bft)
29.03.2014 09:20 11,8 C 10,0 C 71 % 1019,8 hPa 0,0 l/m 2 min 0 min 0,0 UV-I 373 W/m 10,3 km/h (2 Bft)
29.03.2014 09:22 11,9 C 10,0 C 70 % 1019,8 hPa 0,0 l/m 2 min 0 min 0,0 UV-I 378 W/m 15,4 km/h (3 Bft)
29.03.2014 09:24 12,2 C 10,0 C 70 % 1019,9 hPa 0,0 l/m 2 min 0 min 0,0 UV-I 381 W/m 30,9 km/h (5 Bft)
29.03.2014 09:26 12,2 C 10,0 C 69 % 1019,8 hPa 0,0 l/m 2 min 0 min 0,0 UV-I 387 W/m 18,0 km/h (3 Bft)
29.03.2014 09:28 12,3 C 10,6 C 69 % 1019,8 hPa 0,0 l/m 2 min 0 min 0,0 UV-I 392 W/m 25,7 km/h (4 Bft)
29.03.2014 09:30 12,3 C 10,6 C 68 % 1019,9 hPa 0,0 l/m 2 min 0 min 0,0 UV-I 397 W/m 25,7 km/h (4 Bft)
29.03.2014 09:32 12,3 C 10,6 C 68 % 1019,9 hPa 0,0 l/m 2 min 0 min 0,0 UV-I 401 W/m 33,5 km/h (5 Bft)
29.03.2014 09:34 12,3 C 10,6 C 68 % 1019,8 hPa 0,0 l/m 2 min 0 min 0,0 UV-I 404 W/m 15,4 km/h (3 Bft)
29.03.2014 09:36 12,4 C 10,6 C 69 % 1019,9 hPa 0,0 l/m 2 min 0 min 0,5 UV-I 411 W/m 18,0 km/h (3 Bft)
29.03.2014 09:38 12,6 C 11,1 C 67 % 1019,8 hPa 0,0 l/m 2 min 0 min 0,5 UV-I 413 W/m 25,7 km/h (4 Bft)
29.03.2014 09:40 12,6 C 11,1 C 68 % 1019,8 hPa 0,0 l/m 2 min 0 min 0,5 UV-I 420 W/m 20,6 km/h (4 Bft)
29.03.2014 09:42 12,6 C 11,1 C 67 % 1019,8 hPa 0,0 l/m 2 min 0 min 0,5 UV-I 422 W/m 20,6 km/h (4 Bft)
29.03.2014 09:44 12,7 C 11,1 C 68 % 1019,9 hPa 0,0 l/m 2 min 0 min 0,5 UV-I 427 W/m 25,7 km/h (4 Bft)
29.03.2014 09:46 12,8 C 11,7 C 68 % 1019,9 hPa 0,0 l/m 2 min 0 min 0,5 UV-I 429 W/m 28,3 km/h (4 Bft)
29.03.2014 09:48 13,0 C 11,7 C 68 % 1019,9 hPa 0,0 l/m 2 min 0 min 0,6 UV-I 436 W/m 7,7 km/h (2 Bft)
29.03.2014 09:50 13,3 C 11,7 C 68 % 1019,9 hPa 0,0 l/m 2 min 0 min 0,6 UV-I 439 W/m 15,4 km/h (3 Bft)
29.03.2014 09:52 13,4 C 11,7 C 66 % 1019,9 hPa 0,0 l/m 2 min 0 min 0,6 UV-I 446 W/m 28,3 km/h (4 Bft)
29.03.2014 09:54 13,4 C 12,2 C 65 % 1019,9 hPa 0,0 l/m 2 min 0 min 0,6 UV-I 448 W/m 20,6 km/h (4 Bft)
29.03.2014 09:56 13,4 C 12,2 C 66 % 1019,9 hPa 0,0 l/m 2 min 0 min 0,7 UV-I 454 W/m 20,6 km/h (4 Bft)
29.03.2014 09:58 13,5 C 12,2 C 66 % 1019,9 hPa 0,0 l/m 2 min 0 min 0,7 UV-I 459 W/m 23,2 km/h (4 Bft)
29.03.2014 10:00 13,7 C 12,2 C 65 % 1019,9 hPa 0,0 l/m 2 min 0 min 0,7 UV-I 461 W/m 20,6 km/h (4 Bft)
29.03.2014 10:02 13,8 C 12,2 C 65 % 1019,9 hPa 0,0 l/m 2 min 0 min 0,7 UV-I 464 W/m 23,2 km/h (4 Bft)
29.03.2014 10:06 14,0 C 12,8 C 64 % 1019,9 hPa 0,0 l/m 2 min 0 min 0,8 UV-I 473 W/m 20,6 km/h (4 Bft)
29.03.2014 10:08 14,1 C 12,8 C 63 % 1019,9 hPa 0,0 l/m 2 min 0 min 0,8 UV-I 478 W/m 20,6 km/h (4 Bft)
29.03.2014 10:10 14,2 C 12,8 C 64 % 1019,8 hPa 0,0 l/m 2 min 0 min 0,8 UV-I 480 W/m 18,0 km/h (3 Bft)
29.03.2014 10:12 14,2 C 12,8 C 64 % 1019,8 hPa 0,0 l/m 2 min 0 min 0,8 UV-I 483 W/m 15,4 km/h (3 Bft)
29.03.2014 10:14 14,2 C 12,8 C 64 % 1019,7 hPa 0,0 l/m 2 min 0 min 0,8 UV-I 490 W/m 23,2 km/h (4 Bft)
29.03.2014 10:16 14,2 C 12,8 C 63 % 1019,8 hPa 0,0 l/m 2 min 0 min 0,9 UV-I 494 W/m 12,9 km/h (3 Bft)
29.03.2014 10:18 14,4 C 13,3 C 64 % 1019,8 hPa 0,0 l/m 2 min 0 min 0,9 UV-I 497 W/m 15,4 km/h (3 Bft)
29.03.2014 10:20 14,4 C 13,3 C 63 % 1019,7 hPa 0,0 l/m 2 min 0 min 0,9 UV-I 501 W/m 20,6 km/h (4 Bft)
29.03.2014 10:22 14,5 C 13,3 C 64 % 1019,7 hPa 0,0 l/m 2 min 0 min 0,9 UV-I 503 W/m 18,0 km/h (3 Bft)
29.03.2014 10:24 14,4 C 13,3 C 63 % 1019,8 hPa 0,0 l/m 2 min 0 min 0,9 UV-I 506 W/m 20,6 km/h (4 Bft)
29.03.2014 10:26 14,4 C 13,3 C 63 % 1019,7 hPa 0,0 l/m 2 min 0 min 1,0 UV-I 515 W/m 10,3 km/h (2 Bft)
29.03.2014 10:28 14,6 C 13,3 C 63 % 1019,7 hPa 0,0 l/m 2 min 0 min 1,0 UV-I 517 W/m 18,0 km/h (3 Bft)
29.03.2014 10:30 14,6 C 13,3 C 63 % 1019,7 hPa 0,0 l/m 2 min 0 min 1,0 UV-I 519 W/m 18,0 km/h (3 Bft)
29.03.2014 10:32 14,8 C 13,3 C 63 % 1019,7 hPa 0,0 l/m 2 min 0 min 1,0 UV-I 524 W/m 18,0 km/h (3 Bft)
29.03.2014 10:34 14,9 C 13,3 C 63 % 1019,7 hPa 0,0 l/m 2 min 0 min 1,1 UV-I 526 W/m 15,4 km/h (3 Bft)
29.03.2014 10:36 15,0 C 13,9 C 63 % 1019,7 hPa 0,0 l/m 2 min 0 min 1,1 UV-I 529 W/m 15,4 km/h (3 Bft)
29.03.2014 10:38 15,2 C 13,9 C 63 % 1019,6 hPa 0,0 l/m 2 min 0 min 1,1 UV-I 533 W/m 15,4 km/h (3 Bft)
29.03.2014 10:40 15,4 C 13,9 C 62 % 1019,6 hPa 0,0 l/m 2 min 0 min 1,1 UV-I 536 W/m 12,9 km/h (3 Bft)
29.03.2014 10:42 15,5 C 13,9 C 62 % 1019,6 hPa 0,0 l/m 2 min 0 min 1,2 UV-I 540 W/m 2,6 km/h (1 Bft)
29.03.2014 10:44 15,7 C 13,9 C 62 % 1019,7 hPa 0,0 l/m 2 min 0 min 1,2 UV-I 541 W/m 18,0 km/h (3 Bft)
29.03.2014 10:46 15,7 C 13,9 C 61 % 1019,6 hPa 0,0 l/m 2 min 0 min 1,2 UV-I 547 W/m 15,4 km/h (3 Bft)
29.03.2014 10:48 15,7 C 14,4 C 60 % 1019,6 hPa 0,0 l/m 2 min 0 min 1,2 UV-I 550 W/m 20,6 km/h (4 Bft)
29.03.2014 10:50 15,7 C 14,4 C 61 % 1019,6 hPa 0,0 l/m 2 min 0 min 1,2 UV-I 555 W/m 20,6 km/h (4 Bft)
29.03.2014 10:52 15,7 C 14,4 C 60 % 1019,6 hPa 0,0 l/m 2 min 0 min 1,3 UV-I 555 W/m 18,0 km/h (3 Bft)
29.03.2014 10:54 15,8 C 14,4 C 59 % 1019,5 hPa 0,0 l/m 2 min 0 min 1,3 UV-I 559 W/m 23,2 km/h (4 Bft)
29.03.2014 10:56 15,7 C 14,4 C 60 % 1019,5 hPa 0,0 l/m 2 min 0 min 1,3 UV-I 563 W/m 20,6 km/h (4 Bft)
29.03.2014 10:58 15,8 C 14,4 C 59 % 1019,5 hPa 0,0 l/m 2 min 0 min 1,3 UV-I 564 W/m 12,9 km/h (3 Bft)
29.03.2014 11:00 15,9 C 14,4 C 59 % 1019,5 hPa 0,0 l/m 2 min 0 min 1,3 UV-I 566 W/m 18,0 km/h (3 Bft)
29.03.2014 11:02 16,0 C 14,4 C 60 % 1019,5 hPa 0,0 l/m 2 min 0 min 1,3 UV-I 566 W/m 15,4 km/h (3 Bft)
29.03.2014 11:04 16,1 C 14,4 C 60 % 1019,4 hPa 0,0 l/m 2 min 0 min 1,3 UV-I 571 W/m 18,0 km/h (3 Bft)
29.03.2014 11:06 16,0 C 14,4 C 59 % 1019,5 hPa 0,0 l/m 2 min 0 min 1,3 UV-I 571 W/m 12,9 km/h (3 Bft)
29.03.2014 11:08 16,1 C 15,0 C 59 % 1019,5 hPa 0,0 l/m 2 min 0 min 1,4 UV-I 578 W/m 25,7 km/h (4 Bft)
29.03.2014 11:10 16,2 C 15,0 C 59 % 1019,4 hPa 0,0 l/m 2 min 0 min 1,4 UV-I 582 W/m 20,6 km/h (4 Bft)
29.03.2014 11:12 16,3 C 15,0 C 59 % 1019,4 hPa 0,0 l/m 2 min 0 min 1,4 UV-I 585 W/m 10,3 km/h (2 Bft)
29.03.2014 11:14 16,5 C 15,0 C 58 % 1019,4 hPa 0,0 l/m 2 min 0 min 1,4 UV-I 587 W/m 15,4 km/h (3 Bft)
29.03.2014 11:16 16,4 C 15,0 C 58 % 1019,4 hPa 0,0 l/m 2 min 0 min 1,4 UV-I 591 W/m 15,4 km/h (3 Bft)
29.03.2014 11:18 16,5 C 15,0 C 58 % 1019,5 hPa 0,0 l/m 2 min 0 min 1,5 UV-I 594 W/m 15,4 km/h (3 Bft)
29.03.2014 11:20 16,7 C 15,6 C 58 % 1019,4 hPa 0,0 l/m 2 min 0 min 1,5 UV-I 599 W/m 12,9 km/h (3 Bft)
29.03.2014 11:22 16,8 C 15,6 C 58 % 1019,4 hPa 0,0 l/m 2 min 0 min 1,5 UV-I 598 W/m 12,9 km/h (3 Bft)
29.03.2014 11:24 16,9 C 15,6 C 58 % 1019,5 hPa 0,0 l/m 2 min 0 min 1,5 UV-I 598 W/m 18,0 km/h (3 Bft)
29.03.2014 11:26 17,0 C 15,6 C 56 % 1019,4 hPa 0,0 l/m 2 min 0 min 1,5 UV-I 571 W/m 12,9 km/h (3 Bft)
29.03.2014 11:28 17,0 C 15,6 C 57 % 1019,4 hPa 0,0 l/m 2 min 0 min 1,5 UV-I 561 W/m 20,6 km/h (4 Bft)
29.03.2014 11:30 17,0 C 15,6 C 57 % 1019,4 hPa 0,0 l/m 2 min 0 min 1,6 UV-I 605 W/m 18,0 km/h (3 Bft)
29.03.2014 11:32 17,1 C 15,6 C 57 % 1019,3 hPa 0,0 l/m 2 min 0 min 1,6 UV-I 605 W/m 30,9 km/h (5 Bft)
29.03.2014 11:34 17,1 C 15,6 C 56 % 1019,2 hPa 0,0 l/m 2 min 0 min 1,6 UV-I 615 W/m 18,0 km/h (3 Bft)
29.03.2014 11:36 17,3 C 16,1 C 56 % 1019,2 hPa 0,0 l/m 2 min 0 min 1,6 UV-I 619 W/m 20,6 km/h (4 Bft)
29.03.2014 11:38 17,4 C 16,1 C 57 % 1019,3 hPa 0,0 l/m 2 min 0 min 1,6 UV-I 615 W/m 28,3 km/h (4 Bft)
29.03.2014 11:40 17,6 C 16,1 C 56 % 1019,2 hPa 0,0 l/m 2 min 0 min 1,6 UV-I 568 W/m 23,2 km/h (4 Bft)
29.03.2014 11:42 17,6 C 16,1 C 54 % 1019,2 hPa 0,0 l/m 2 min 0 min 1,7 UV-I 622 W/m 28,3 km/h (4 Bft)
29.03.2014 11:44 17,7 C 16,1 C 56 % 1019,2 hPa 0,0 l/m 2 min 0 min 1,6 UV-I 615 W/m 12,9 km/h (3 Bft)
29.03.2014 11:46 17,8 C 16,1 C 54 % 1019,2 hPa 0,0 l/m 2 min 0 min 1,6 UV-I 624 W/m 12,9 km/h (3 Bft)
29.03.2014 11:48 17,7 C 16,1 C 55 % 1019,2 hPa 0,0 l/m 2 min 0 min 1,5 UV-I 626 W/m 18,0 km/h (3 Bft)
29.03.2014 11:50 17,8 C 16,7 C 55 % 1019,2 hPa 0,0 l/m 2 min 0 min 1,4 UV-I 626 W/m 23,2 km/h (4 Bft)
29.03.2014 11:52 17,8 C 16,7 C 53 % 1019,2 hPa 0,0 l/m 2 min 0 min 1,3 UV-I 626 W/m 15,4 km/h (3 Bft)
29.03.2014 11:54 17,8 C 16,7 C 54 % 1019,2 hPa 0,0 l/m 2 min 0 min 1,2 UV-I 628 W/m 23,2 km/h (4 Bft)
29.03.2014 11:56 17,7 C 16,7 C 53 % 1019,2 hPa 0,0 l/m 2 min 0 min 1,0 UV-I 626 W/m 25,7 km/h (4 Bft)
29.03.2014 11:58 17,8 C 16,7 C 53 % 1019,2 hPa 0,0 l/m 2 min 0 min 0,9 UV-I 622 W/m 25,7 km/h (4 Bft)
29.03.2014 12:00 17,9 C 16,7 C 53 % 1019,2 hPa 0,0 l/m 2 min 0 min 0,9 UV-I 624 W/m 28,3 km/h (4 Bft)
29.03.2014 12:02 17,9 C 16,7 C 53 % 1019,1 hPa 0,0 l/m 2 min 0 min 0,9 UV-I 633 W/m 18,0 km/h (3 Bft)
29.03.2014 12:06 18,1 C 16,7 C 52 % 1019,2 hPa 0,0 l/m 2 min 0 min 0,9 UV-I 635 W/m 28,3 km/h (4 Bft)
29.03.2014 12:08 18,2 C 16,7 C 53 % 1019,2 hPa 0,0 l/m 2 min 0 min 0,9 UV-I 635 W/m 15,4 km/h (3 Bft)
29.03.2014 12:10 18,3 C 16,7 C 53 % 1019,2 hPa 0,0 l/m 2 min 0 min 0,9 UV-I 638 W/m 23,2 km/h (4 Bft)
29.03.2014 12:12 18,4 C 16,7 C 52 % 1019,1 hPa 0,0 l/m 2 min 0 min 0,9 UV-I 633 W/m 18,0 km/h (3 Bft)
29.03.2014 12:14 18,5 C 16,7 C 53 % 1019,1 hPa 0,0 l/m 2 min 0 min 0,9 UV-I 638 W/m 18,0 km/h (3 Bft)
29.03.2014 12:16 18,5 C 16,7 C 52 % 1019,1 hPa 0,0 l/m 2 min 0 min 0,9 UV-I 628 W/m 23,2 km/h (4 Bft)
29.03.2014 12:18 18,4 C 16,7 C 52 % 1019,1 hPa 0,0 l/m 2 min 0 min 0,9 UV-I 621 W/m 18,0 km/h (3 Bft)
29.03.2014 12:20 18,6 C 17,2 C 53 % 1019,1 hPa 0,0 l/m 2 min 0 min 0,9 UV-I 649 W/m 15,4 km/h (3 Bft)
29.03.2014 12:22 18,7 C 17,2 C 52 % 1019,1 hPa 0,0 l/m 2 min 0 min 0,9 UV-I 643 W/m 18,0 km/h (3 Bft)
29.03.2014 12:24 18,8 C 17,2 C 51 % 1019,2 hPa 0,0 l/m 2 min 0 min 0,9 UV-I 636 W/m 20,6 km/h (4 Bft)
29.03.2014 12:26 18,7 C 17,2 C 50 % 1019,1 hPa 0,0 l/m 2 min 0 min 0,9 UV-I 635 W/m 23,2 km/h (4 Bft)
29.03.2014 12:28 18,8 C 17,2 C 51 % 1019,1 hPa 0,0 l/m 2 min 0 min 0,9 UV-I 636 W/m 30,9 km/h (5 Bft)
29.03.2014 12:30 18,8 C 17,2 C 51 % 1019,1 hPa 0,0 l/m 2 min 0 min 0,9 UV-I 640 W/m 28,3 km/h (4 Bft)
29.03.2014 12:32 18,8 C 17,2 C 49 % 1019,1 hPa 0,0 l/m 2 min 0 min 0,9 UV-I 650 W/m 30,9 km/h (5 Bft)
29.03.2014 12:34 19,0 C 17,2 C 51 % 1019,0 hPa 0,0 l/m 2 min 0 min 0,9 UV-I 649 W/m 18,0 km/h (3 Bft)
29.03.2014 12:36 19,2 C 17,8 C 49 % 1019,1 hPa 0,0 l/m 2 min 0 min 1,0 UV-I 652 W/m 25,7 km/h (4 Bft)
29.03.2014 12:38 19,2 C 17,8 C 49 % 1019,0 hPa 0,0 l/m 2 min 0 min 1,0 UV-I 647 W/m 23,2 km/h (4 Bft)
29.03.2014 12:40 19,3 C 17,8 C 49 % 1019,0 hPa 0,0 l/m 2 min 0 min 1,2 UV-I 650 W/m 25,7 km/h (4 Bft)
29.03.2014 12:42 19,2 C 17,8 C 48 % 1019,1 hPa 0,0 l/m 2 min 0 min 1,3 UV-I 649 W/m 23,2 km/h (4 Bft)
29.03.2014 12:44 19,2 C 17,8 C 48 % 1019,1 hPa 0,0 l/m 2 min 0 min 1,5 UV-I 645 W/m 25,7 km/h (4 Bft)
29.03.2014 12:46 19,2 C 17,2 C 48 % 1019,1 hPa 0,0 l/m 2 min 0 min 1,6 UV-I 656 W/m 15,4 km/h (3 Bft)
29.03.2014 12:48 19,3 C 17,8 C 47 % 1019,0 hPa 0,0 l/m 2 min 0 min 1,8 UV-I 657 W/m 28,3 km/h (4 Bft)
29.03.2014 12:50 19,4 C 17,8 C 47 % 1019,0 hPa 0,0 l/m 2 min 0 min 1,9 UV-I 650 W/m 25,7 km/h (4 Bft)
29.03.2014 12:52 19,6 C 17,8 C 50 % 1019,0 hPa 0,0 l/m 2 min 0 min 1,9 UV-I 649 W/m 20,6 km/h (4 Bft)
29.03.2014 12:54 19,6 C 17,8 C 46 % 1018,9 hPa 0,0 l/m 2 min 0 min 1,9 UV-I 652 W/m 20,6 km/h (4 Bft)
29.03.2014 12:56 19,7 C 17,8 C 47 % 1018,9 hPa 0,0 l/m 2 min 0 min 1,9 UV-I 654 W/m 25,7 km/h (4 Bft)
29.03.2014 12:58 19,9 C 17,8 C 48 % 1018,9 hPa 0,0 l/m 2 min 0 min 1,8 UV-I 617 W/m 20,6 km/h (4 Bft)
29.03.2014 13:00 19,8 C 17,8 C 48 % 1018,9 hPa 0,0 l/m 2 min 0 min 1,9 UV-I 622 W/m 20,6 km/h (4 Bft)
29.03.2014 13:02 19,7 C 17,8 C 48 % 1018,9 hPa 0,0 l/m 2 min 0 min 1,8 UV-I 615 W/m 25,7 km/h (4 Bft)
29.03.2014 13:04 19,7 C 17,8 C 46 % 1018,9 hPa 0,0 l/m 2 min 0 min 1,9 UV-I 668 W/m 25,7 km/h (4 Bft)
29.03.2014 13:06 19,6 C 17,8 C 47 % 1018,9 hPa 0,0 l/m 2 min 0 min 1,9 UV-I 649 W/m 25,7 km/h (4 Bft)
29.03.2014 13:08 19,7 C 17,8 C 47 % 1018,8 hPa 0,0 l/m 2 min 0 min 1,9 UV-I 673 W/m 15,4 km/h (3 Bft)
29.03.2014 13:10 19,8 C 18,3 C 47 % 1018,8 hPa 0,0 l/m 2 min 0 min 1,9 UV-I 564 W/m 15,4 km/h (3 Bft)
29.03.2014 13:12 19,7 C 17,8 C 46 % 1018,8 hPa 0,0 l/m 2 min 0 min 1,7 UV-I 568 W/m 20,6 km/h (4 Bft)
29.03.2014 13:14 19,7 C 17,8 C 48 % 1018,8 hPa 0,0 l/m 2 min 0 min 1,7 UV-I 594 W/m 28,3 km/h (4 Bft)
29.03.2014 13:16 19,8 C 17,8 C 46 % 1018,8 hPa 0,0 l/m 2 min 0 min 1,8 UV-I 591 W/m 25,7 km/h (4 Bft)
29.03.2014 13:18 19,7 C 17,8 C 46 % 1018,8 hPa 0,0 l/m 2 min 0 min 1,8 UV-I 645 W/m 20,6 km/h (4 Bft)
29.03.2014 13:20 19,8 C 17,8 C 47 % 1018,8 hPa 0,0 l/m 2 min 0 min 1,8 UV-I 617 W/m 15,4 km/h (3 Bft)
29.03.2014 13:22 19,9 C 18,3 C 48 % 1018,7 hPa 0,0 l/m 2 min 0 min 1,8 UV-I 587 W/m 23,2 km/h (4 Bft)
29.03.2014 13:24 19,9 C 18,3 C 47 % 1018,7 hPa 0,0 l/m 2 min 0 min 1,8 UV-I 635 W/m 23,2 km/h (4 Bft)
29.03.2014 13:26 19,9 C 18,3 C 45 % 1018,6 hPa 0,0 l/m 2 min 0 min 1,8 UV-I 612 W/m 23,2 km/h (4 Bft)
29.03.2014 13:28 19,8 C 18,3 C 45 % 1018,6 hPa 0,0 l/m 2 min 0 min 1,8 UV-I 608 W/m 23,2 km/h (4 Bft)
29.03.2014 13:30 19,8 C 18,3 C 46 % 1018,6 hPa 0,0 l/m 2 min 0 min 1,7 UV-I 596 W/m 18,0 km/h (3 Bft)
29.03.2014 13:32 19,9 C 18,3 C 45 % 1018,6 hPa 0,0 l/m 2 min 0 min 1,8 UV-I 631 W/m 18,0 km/h (3 Bft)
29.03.2014 13:34 19,9 C 18,3 C 45 % 1018,6 hPa 0,0 l/m 2 min 0 min 1,9 UV-I 640 W/m 25,7 km/h (4 Bft)
29.03.2014 13:36 19,9 C 18,3 C 44 % 1018,6 hPa 0,0 l/m 2 min 0 min 1,8 UV-I 619 W/m 23,2 km/h (4 Bft)
29.03.2014 13:38 19,8 C 18,3 C 46 % 1018,6 hPa 0,0 l/m 2 min 0 min 1,7 UV-I 582 W/m 15,4 km/h (3 Bft)
29.03.2014 13:40 19,9 C 18,3 C 45 % 1018,5 hPa 0,0 l/m 2 min 0 min 1,7 UV-I 599 W/m 25,7 km/h (4 Bft)
29.03.2014 13:42 19,9 C 18,3 C 45 % 1018,5 hPa 0,0 l/m 2 min 0 min 1,7 UV-I 613 W/m 23,2 km/h (4 Bft)
29.03.2014 13:44 19,9 C 18,3 C 46 % 1018,5 hPa 0,0 l/m 2 min 0 min 1,7 UV-I 617 W/m 18,0 km/h (3 Bft)
29.03.2014 13:46 20,0 C 18,3 C 45 % 1018,5 hPa 0,0 l/m 2 min 0 min 1,7 UV-I 599 W/m 12,9 km/h (3 Bft)
29.03.2014 13:48 20,1 C 18,3 C 45 % 1018,5 hPa 0,0 l/m 2 min 0 min 1,7 UV-I 594 W/m 23,2 km/h (4 Bft)
29.03.2014 13:50 19,9 C 18,3 C 45 % 1018,4 hPa 0,0 l/m 2 min 0 min 1,7 UV-I 592 W/m 25,7 km/h (4 Bft)
29.03.2014 13:52 20,0 C 18,3 C 48 % 1018,3 hPa 0,0 l/m 2 min 0 min 1,7 UV-I 599 W/m 18,0 km/h (3 Bft)
29.03.2014 13:54 20,1 C 18,3 C 45 % 1018,3 hPa 0,0 l/m 2 min 0 min 1,6 UV-I 584 W/m 18,0 km/h (3 Bft)
29.03.2014 13:56 20,3 C 18,3 C 43 % 1018,3 hPa 0,0 l/m 2 min 0 min 1,6 UV-I 570 W/m 18,0 km/h (3 Bft)
29.03.2014 13:58 20,1 C 18,3 C 43 % 1018,3 hPa 0,0 l/m 2 min 0 min 1,7 UV-I 584 W/m 25,7 km/h (4 Bft)
29.03.2014 14:00 20,1 C 18,3 C 46 % 1018,2 hPa 0,0 l/m 2 min 0 min 1,7 UV-I 598 W/m 10,3 km/h (2 Bft)
29.03.2014 14:02 20,1 C 18,3 C 44 % 1018,3 hPa 0,0 l/m 2 min 0 min 1,7 UV-I 606 W/m 20,6 km/h (4 Bft)
29.03.2014 14:04 20,1 C 18,3 C 42 % 1018,3 hPa 0,0 l/m 2 min 0 min 1,7 UV-I 594 W/m 28,3 km/h (4 Bft)
29.03.2014 14:06 20,1 C 18,3 C 42 % 1018,2 hPa 0,0 l/m 2 min 0 min 1,7 UV-I 617 W/m 23,2 km/h (4 Bft)
29.03.2014 14:08 20,1 C 18,3 C 43 % 1018,2 hPa 0,0 l/m 2 min 0 min 1,6 UV-I 599 W/m 23,2 km/h (4 Bft)
29.03.2014 14:10 20,0 C 18,3 C 42 % 1018,2 hPa 0,0 l/m 2 min 0 min 1,4 UV-I 526 W/m 20,6 km/h (4 Bft)
29.03.2014 14:12 20,1 C 18,3 C 41 % 1018,2 hPa 0,0 l/m 2 min 0 min 1,4 UV-I 512 W/m 15,4 km/h (3 Bft)
29.03.2014 14:14 20,1 C 18,3 C 42 % 1018,1 hPa 0,0 l/m 2 min 0 min 1,4 UV-I 550 W/m 7,7 km/h (2 Bft)
29.03.2014 14:16 20,1 C 18,3 C 43 % 1018,1 hPa 0,0 l/m 2 min 0 min 1,4 UV-I 538 W/m 18,0 km/h (3 Bft)
29.03.2014 14:18 20,1 C 18,3 C 43 % 1018,1 hPa 0,0 l/m 2 min 0 min 1,4 UV-I 520 W/m 25,7 km/h (4 Bft)
29.03.2014 14:20 20,2 C 18,3 C 44 % 1018,0 hPa 0,0 l/m 2 min 0 min 1,3 UV-I 432 W/m 23,2 km/h (4 Bft)
29.03.2014 14:22 20,1 C 18,3 C 45 % 1018,0 hPa 0,0 l/m 2 min 0 min 1,0 UV-I 373 W/m 20,6 km/h (4 Bft)
29.03.2014 14:24 19,9 C 18,3 C 42 % 1018,1 hPa 0,0 l/m 2 min 0 min 1,1 UV-I 357 W/m 18,0 km/h (3 Bft)
29.03.2014 14:26 19,8 C 18,3 C 43 % 1018,1 hPa 0,0 l/m 2 min 0 min 1,2 UV-I 480 W/m 20,6 km/h (4 Bft)
29.03.2014 14:28 19,8 C 18,3 C 44 % 1018,0 hPa 0,0 l/m 2 min 0 min 1,2 UV-I 464 W/m 10,3 km/h (2 Bft)
29.03.2014 14:30 19,8 C 18,3 C 45 % 1018,0 hPa 0,0 l/m 2 min 0 min 1,3 UV-I 557 W/m 20,6 km/h (4 Bft)
29.03.2014 14:32 20,1 C 18,9 C 45 % 1018,0 hPa 0,0 l/m 2 min 0 min 1,3 UV-I 592 W/m 15,4 km/h (3 Bft)
29.03.2014 14:34 20,2 C 18,9 C 44 % 1018,0 hPa 0,0 l/m 2 min 0 min 1,5 UV-I 603 W/m 25,7 km/h (4 Bft)
29.03.2014 14:36 20,3 C 18,9 C 45 % 1018,0 hPa 0,0 l/m 2 min 0 min 1,5 UV-I 608 W/m 23,2 km/h (4 Bft)
29.03.2014 14:38 20,4 C 19,4 C 44 % 1018,0 hPa 0,0 l/m 2 min 0 min 1,5 UV-I 603 W/m 18,0 km/h (3 Bft)
29.03.2014 14:40 20,4 C 19,4 C 44 % 1017,9 hPa 0,0 l/m 2 min 0 min 1,5 UV-I 603 W/m 18,0 km/h (3 Bft)
29.03.2014 14:42 20,6 C 19,4 C 44 % 1017,9 hPa 0,0 l/m 2 min 0 min 1,5 UV-I 598 W/m 18,0 km/h (3 Bft)
29.03.2014 14:44 20,6 C 19,4 C 43 % 1017,9 hPa 0,0 l/m 2 min 0 min 1,4 UV-I 570 W/m 15,4 km/h (3 Bft)
29.03.2014 14:46 20,7 C 19,4 C 45 % 1017,9 hPa 0,0 l/m 2 min 0 min 1,4 UV-I 591 W/m 15,4 km/h (3 Bft)
29.03.2014 14:48 20,8 C 19,4 C 43 % 1017,8 hPa 0,0 l/m 2 min 0 min 1,4 UV-I 584 W/m 7,7 km/h (2 Bft)
29.03.2014 14:50 21,0 C 19,4 C 42 % 1017,9 hPa 0,0 l/m 2 min 0 min 1,3 UV-I 566 W/m 7,7 km/h (2 Bft)
29.03.2014 14:52 20,9 C 19,4 C 42 % 1017,8 hPa 0,0 l/m 2 min 0 min 1,3 UV-I 563 W/m 18,0 km/h (3 Bft)
29.03.2014 14:54 20,7 C 19,4 C 43 % 1017,8 hPa 0,0 l/m 2 min 0 min 1,3 UV-I 557 W/m 20,6 km/h (4 Bft)
29.03.2014 14:56 20,8 C 19,4 C 43 % 1017,7 hPa 0,0 l/m 2 min 0 min 1,2 UV-I 519 W/m 12,9 km/h (3 Bft)
29.03.2014 14:58 20,8 C 19,4 C 43 % 1017,8 hPa 0,0 l/m 2 min 0 min 1,2 UV-I 538 W/m 20,6 km/h (4 Bft)
29.03.2014 15:00 20,7 C 19,4 C 43 % 1017,8 hPa 0,0 l/m 2 min 0 min 1,2 UV-I 536 W/m 23,2 km/h (4 Bft)
29.03.2014 15:02 20,6 C 19,4 C 42 % 1017,6 hPa 0,0 l/m 2 min 0 min 1,2 UV-I 536 W/m 12,9 km/h (3 Bft)
29.03.2014 15:04 20,6 C 19,4 C 42 % 1017,6 hPa 0,0 l/m 2 min 0 min 1,2 UV-I 536 W/m 15,4 km/h (3 Bft)
29.03.2014 15:06 20,6 C 19,4 C 42 % 1017,6 hPa 0,0 l/m 2 min 0 min 1,2 UV-I 531 W/m 10,3 km/h (2 Bft)
29.03.2014 15:08 20,7 C 19,4 C 42 % 1017,6 hPa 0,0 l/m 2 min 0 min 1,1 UV-I 517 W/m 15,4 km/h (3 Bft)
29.03.2014 15:10 20,7 C 19,4 C 41 % 1017,6 hPa 0,0 l/m 2 min 0 min 1,1 UV-I 483 W/m 7,7 km/h (2 Bft)
29.03.2014 15:12 20,6 C 18,9 C 40 % 1017,6 hPa 0,0 l/m 2 min 0 min 1,0 UV-I 469 W/m 15,4 km/h (3 Bft)
29.03.2014 15:14 20,4 C 18,9 C 41 % 1017,6 hPa 0,0 l/m 2 min 0 min 1,0 UV-I 492 W/m 10,3 km/h (2 Bft)
29.03.2014 15:16 20,4 C 19,4 C 41 % 1017,6 hPa 0,0 l/m 2 min 0 min 1,0 UV-I 483 W/m 12,9 km/h (3 Bft)
29.03.2014 15:18 20,6 C 20,6 C 42 % 1017,6 hPa 0,0 l/m 2 min 0 min 1,0 UV-I 506 W/m 12,9 km/h (3 Bft)
29.03.2014 15:20 20,8 C 21,1 C 42 % 1017,6 hPa 0,0 l/m 2 min 0 min 1,0 UV-I 497 W/m 20,6 km/h (4 Bft)
29.03.2014 15:22 20,8 C 21,1 C 41 % 1017,5 hPa 0,0 l/m 2 min 0 min 1,0 UV-I 471 W/m 15,4 km/h (3 Bft)
29.03.2014 15:24 20,8 C 21,7 C 40 % 1017,5 hPa 0,0 l/m 2 min 0 min 0,9 UV-I 468 W/m 18,0 km/h (3 Bft)
29.03.2014 15:26 20,8 C 22,2 C 42 % 1017,5 hPa 0,0 l/m 2 min 0 min 0,9 UV-I 454 W/m 12,9 km/h (3 Bft)
29.03.2014 15:28 20,9 C 21,7 C 41 % 1017,4 hPa 0,0 l/m 2 min 0 min 0,9 UV-I 462 W/m 15,4 km/h (3 Bft)
29.03.2014 15:30 20,9 C 21,7 C 40 % 1017,5 hPa 0,0 l/m 2 min 0 min 0,9 UV-I 476 W/m 25,7 km/h (4 Bft)
29.03.2014 15:32 20,8 C 21,7 C 41 % 1017,4 hPa 0,0 l/m 2 min 0 min 0,9 UV-I 461 W/m 25,7 km/h (4 Bft)
29.03.2014 15:34 20,7 C 21,7 C 39 % 1017,4 hPa 0,0 l/m 2 min 0 min 0,8 UV-I 445 W/m 10,3 km/h (2 Bft)
29.03.2014 15:36 20,6 C 21,1 C 42 % 1017,3 hPa 0,0 l/m 2 min 0 min 0,8 UV-I 429 W/m 12,9 km/h (3 Bft)
29.03.2014 15:38 20,6 C 21,7 C 41 % 1017,4 hPa 0,0 l/m 2 min 0 min 0,8 UV-I 429 W/m 7,7 km/h (2 Bft)
29.03.2014 15:40 20,7 C 21,7 C 43 % 1017,3 hPa 0,0 l/m 2 min 0 min 0,7 UV-I 436 W/m 25,7 km/h (4 Bft)
29.03.2014 15:42 20,8 C 21,7 C 42 % 1017,4 hPa 0,0 l/m 2 min 0 min 0,7 UV-I 417 W/m 5,1 km/h (1 Bft)
29.03.2014 15:44 20,8 C 21,1 C 40 % 1017,3 hPa 0,0 l/m 2 min 0 min 0,7 UV-I 410 W/m 5,1 km/h (1 Bft)
29.03.2014 15:46 20,8 C 20,6 C 40 % 1017,3 hPa 0,0 l/m 2 min 0 min 0,6 UV-I 392 W/m 18,0 km/h (3 Bft)
29.03.2014 15:48 20,7 C 20,6 C 39 % 1017,3 hPa 0,0 l/m 2 min 0 min 0,6 UV-I 380 W/m 25,7 km/h (4 Bft)
29.03.2014 15:50 20,4 C 20,0 C 39 % 1017,3 hPa 0,0 l/m 2 min 0 min 0,6 UV-I 399 W/m 20,6 km/h (4 Bft)
29.03.2014 15:52 20,4 C 20,0 C 41 % 1017,3 hPa 0,0 l/m 2 min 0 min 0,6 UV-I 429 W/m 7,7 km/h (2 Bft)
29.03.2014 15:54 20,7 C 20,0 C 40 % 1017,2 hPa 0,0 l/m 2 min 0 min 0,6 UV-I 415 W/m 10,3 km/h (2 Bft)
29.03.2014 15:56 20,8 C 19,4 C 40 % 1017,2 hPa 0,0 l/m 2 min 0 min 0,6 UV-I 425 W/m 12,9 km/h (3 Bft)
29.03.2014 15:58 20,8 C 19,4 C 39 % 1017,1 hPa 0,0 l/m 2 min 0 min 0,6 UV-I 411 W/m 25,7 km/h (4 Bft)
29.03.2014 16:00 20,8 C 19,4 C 41 % 1017,1 hPa 0,0 l/m 2 min 0 min 0,6 UV-I 397 W/m 15,4 km/h (3 Bft)
29.03.2014 16:02 20,8 C 18,9 C 41 % 1017,0 hPa 0,0 l/m 2 min 0 min 0,5 UV-I 396 W/m 10,3 km/h (2 Bft)
29.03.2014 16:04 20,8 C 18,9 C 40 % 1017,0 hPa 0,0 l/m 2 min 0 min 0,5 UV-I 399 W/m 10,3 km/h (2 Bft)
29.03.2014 16:06 20,8 C 18,9 C 41 % 1017,0 hPa 0,0 l/m 2 min 0 min 0,5 UV-I 350 W/m 10,3 km/h (2 Bft)
29.03.2014 16:08 20,9 C 18,9 C 40 % 1017,0 hPa 0,0 l/m 2 min 0 min 0,0 UV-I 343 W/m 7,7 km/h (2 Bft)
29.03.2014 16:10 20,9 C 18,9 C 41 % 1016,9 hPa 0,0 l/m 2 min 0 min 0,0 UV-I 339 W/m 10,3 km/h (2 Bft)
29.03.2014 16:12 20,8 C 18,3 C 39 % 1016,9 hPa 0,0 l/m 2 min 0 min 0,0 UV-I 315 W/m 15,4 km/h (3 Bft)
29.03.2014 16:14 20,7 C 18,3 C 39 % 1016,9 hPa 0,0 l/m 2 min 0 min 0,0 UV-I 341 W/m 15,4 km/h (3 Bft)
29.03.2014 16:16 20,6 C 18,3 C 39 % 1016,9 hPa 0,0 l/m 2 min 0 min 0,0 UV-I 315 W/m 15,4 km/h (3 Bft)
29.03.2014 16:18 20,5 C 18,3 C 39 % 1017,0 hPa 0,0 l/m 2 min 0 min 0,0 UV-I 308 W/m 10,3 km/h (2 Bft)
29.03.2014 16:20 20,5 C 18,3 C 40 % 1016,9 hPa 0,0 l/m 2 min 0 min 0,0 UV-I 316 W/m 15,4 km/h (3 Bft)
29.03.2014 16:22 20,4 C 18,3 C 40 % 1016,9 hPa 0,0 l/m 2 min 0 min 0,0 UV-I 309 W/m 12,9 km/h (3 Bft)
29.03.2014 16:24 20,4 C 18,3 C 42 % 1016,8 hPa 0,0 l/m 2 min 0 min 0,0 UV-I 276 W/m 15,4 km/h (3 Bft)
29.03.2014 16:26 20,3 C 17,8 C 40 % 1016,8 hPa 0,0 l/m 2 min 0 min 0,0 UV-I 251 W/m 12,9 km/h (3 Bft)
29.03.2014 16:28 20,3 C 17,8 C 41 % 1016,8 hPa 0,0 l/m 2 min 0 min 0,0 UV-I 227 W/m 7,7 km/h (2 Bft)
29.03.2014 16:30 20,2 C 17,8 C 40 % 1016,8 hPa 0,0 l/m 0 min 0 min 0,0 UV-I 204 W/m 12,9 km/h (3 Bft)
29.03.2014 16:32 20,1 C 17,8 C 40 % 1016,8 hPa 0,0 l/m 2 min 0 min 0,0 UV-I 214 W/m 23,2 km/h (4 Bft)
29.03.2014 16:34 19,9 C 17,8 C 41 % 1016,8 hPa 0,0 l/m 2 min 0 min 0,0 UV-I 214 W/m 15,4 km/h (3 Bft)
29.03.2014 16:36 19,9 C 17,2 C 40 % 1016,8 hPa 0,0 l/m 0 min 0 min 0,0 UV-I 195 W/m 10,3 km/h (2 Bft)
29.03.2014 16:38 19,8 C 17,2 C 40 % 1016,7 hPa 0,0 l/m 0 min 0 min 0,0 UV-I 163 W/m 7,7 km/h (2 Bft)
29.03.2014 16:40 19,7 C 17,2 C 40 % 1016,7 hPa 0,0 l/m 0 min 0 min 0,0 UV-I 192 W/m 15,4 km/h (3 Bft)
29.03.2014 16:42 19,7 C 17,2 C 41 % 1016,7 hPa 0,0 l/m 2 min 0 min 0,0 UV-I 202 W/m 12,9 km/h (3 Bft)
29.03.2014 16:44 19,8 C 17,2 C 39 % 1016,7 hPa 0,0 l/m 2 min 0 min 0,0 UV-I 192 W/m 20,6 km/h (4 Bft)
29.03.2014 16:46 19,7 C 17,2 C 39 % 1016,7 hPa 0,0 l/m 2 min 0 min 0,0 UV-I 190 W/m 20,6 km/h (4 Bft)
29.03.2014 16:48 19,7 C 17,2 C 40 % 1016,7 hPa 0,0 l/m 0 min 0 min 0,0 UV-I 113 W/m 18,0 km/h (3 Bft)
29.03.2014 16:50 19,6 C 17,2 C 40 % 1016,7 hPa 0,0 l/m 0 min 0 min 0,0 UV-I 105 W/m 15,4 km/h (3 Bft)
29.03.2014 16:52 19,5 C 17,2 C 39 % 1016,7 hPa 0,0 l/m 0 min 0 min 0,0 UV-I 105 W/m 10,3 km/h (2 Bft)
29.03.2014 16:54 19,4 C 17,2 C 40 % 1016,7 hPa 0,0 l/m 0 min 0 min 0,0 UV-I 130 W/m 5,1 km/h (1 Bft)
29.03.2014 16:56 19,4 C 17,2 C 40 % 1016,7 hPa 0,0 l/m 0 min 0 min 0,0 UV-I 123 W/m 15,4 km/h (3 Bft)
29.03.2014 16:58 19,3 C 16,7 C 40 % 1016,7 hPa 0,0 l/m 0 min 0 min 0,0 UV-I 137 W/m 18,0 km/h (3 Bft)
29.03.2014 17:00 19,2 C 16,7 C 40 % 1016,7 hPa 0,0 l/m 0 min 0 min 0,0 UV-I 142 W/m 12,9 km/h (3 Bft)
29.03.2014 17:02 19,2 C 16,7 C 41 % 1016,7 hPa 0,0 l/m 2 min 0 min 0,0 UV-I 172 W/m 15,4 km/h (3 Bft)
29.03.2014 17:04 19,3 C 17,2 C 41 % 1016,7 hPa 0,0 l/m 2 min 0 min 0,0 UV-I 199 W/m 2,6 km/h (1 Bft)
29.03.2014 17:06 19,3 C 16,7 C 42 % 1016,6 hPa 0,0 l/m 0 min 0 min 0,0 UV-I 158 W/m 0,0 km/h (0 Bft)
29.03.2014 17:08 19,4 C 16,7 C 41 % 1016,6 hPa 0,0 l/m 2 min 0 min 0,0 UV-I 179 W/m 10,3 km/h (2 Bft)
29.03.2014 17:10 19,4 C 17,2 C 40 % 1016,7 hPa 0,0 l/m 2 min 0 min 0,0 UV-I 181 W/m 7,7 km/h (2 Bft)
29.03.2014 17:12 19,6 C 17,2 C 41 % 1016,6 hPa 0,0 l/m 2 min 0 min 0,0 UV-I 206 W/m 20,6 km/h (4 Bft)
29.03.2014 17:14 19,6 C 17,2 C 41 % 1016,6 hPa 0,0 l/m 2 min 0 min 0,0 UV-I 216 W/m 7,7 km/h (2 Bft)
29.03.2014 17:16 19,6 C 17,2 C 41 % 1016,6 hPa 0,0 l/m 0 min 0 min 0,0 UV-I 148 W/m 5,1 km/h (1 Bft)
29.03.2014 17:18 19,6 C 17,2 C 42 % 1016,6 hPa 0,0 l/m 2 min 0 min 0,0 UV-I 178 W/m 12,9 km/h (3 Bft)
29.03.2014 17:20 19,6 C 17,2 C 40 % 1016,6 hPa 0,0 l/m 2 min 0 min 0,0 UV-I 179 W/m 12,9 km/h (3 Bft)
29.03.2014 17:22 19,6 C 17,2 C 40 % 1016,5 hPa 0,0 l/m 2 min 0 min 0,0 UV-I 181 W/m 12,9 km/h (3 Bft)
29.03.2014 17:24 19,6 C 16,7 C 41 % 1016,5 hPa 0,0 l/m 2 min 0 min 0,0 UV-I 146 W/m 7,7 km/h (2 Bft)
29.03.2014 17:26 19,7 C 16,7 C 41 % 1016,5 hPa 0,0 l/m 2 min 0 min 0,0 UV-I 227 W/m 12,9 km/h (3 Bft)
29.03.2014 17:28 19,8 C 16,7 C 41 % 1016,6 hPa 0,0 l/m 2 min 0 min 0,0 UV-I 195 W/m 12,9 km/h (3 Bft)
29.03.2014 17:30 19,8 C 17,2 C 40 % 1016,5 hPa 0,0 l/m 2 min 0 min 0,0 UV-I 186 W/m 18,0 km/h (3 Bft)
29.03.2014 17:32 19,7 C 17,2 C 41 % 1016,6 hPa 0,0 l/m 2 min 0 min 0,0 UV-I 188 W/m 18,0 km/h (3 Bft)
29.03.2014 17:34 19,6 C 16,7 C 41 % 1016,5 hPa 0,0 l/m 2 min 0 min 0,0 UV-I 139 W/m 12,9 km/h (3 Bft)
29.03.2014 17:36 19,6 C 16,7 C 40 % 1016,5 hPa 0,0 l/m 0 min 0 min 0,0 UV-I 97 W/m 7,7 km/h (2 Bft)
29.03.2014 17:38 19,5 C 16,7 C 41 % 1016,6 hPa 0,0 l/m 0 min 0 min 0,0 UV-I 109 W/m 5,1 km/h (1 Bft)
29.03.2014 17:40 19,4 C 16,7 C 41 % 1016,5 hPa 0,0 l/m 0 min 0 min 0,0 UV-I 76 W/m 12,9 km/h (3 Bft)
29.03.2014 17:42 19,3 C 16,7 C 41 % 1016,6 hPa 0,0 l/m 2 min 0 min 0,0 UV-I 120 W/m 10,3 km/h (2 Bft)
29.03.2014 17:44 19,2 C 16,7 C 42 % 1016,5 hPa 0,0 l/m 0 min 0 min 0,0 UV-I 54 W/m 10,3 km/h (2 Bft)
29.03.2014 17:46 19,1 C 16,1 C 42 % 1016,5 hPa 0,0 l/m 0 min 0 min 0,0 UV-I 49 W/m 7,7 km/h (2 Bft)
29.03.2014 17:48 18,9 C 16,1 C 44 % 1016,6 hPa 0,0 l/m 0 min 0 min 0,0 UV-I 46 W/m 7,7 km/h (2 Bft)
29.03.2014 17:50 18,8 C 15,6 C 44 % 1016,5 hPa 0,0 l/m 0 min 0 min 0,0 UV-I 49 W/m 10,3 km/h (2 Bft)
29.03.2014 17:52 18,7 C 15,6 C 44 % 1016,5 hPa 0,0 l/m 0 min 0 min 0,0 UV-I 42 W/m 10,3 km/h (2 Bft)
29.03.2014 17:54 18,6 C 15,6 C 44 % 1016,6 hPa 0,0 l/m 0 min 0 min 0,0 UV-I 49 W/m 15,4 km/h (3 Bft)
29.03.2014 17:56 18,5 C 15,6 C 43 % 1016,6 hPa 0,0 l/m 0 min 0 min 0,0 UV-I 58 W/m 5,1 km/h (1 Bft)
29.03.2014 17:58 18,4 C 15,6 C 43 % 1016,6 hPa 0,0 l/m 0 min 0 min 0,0 UV-I 56 W/m 12,9 km/h (3 Bft)
29.03.2014 18:00 18,4 C 15,6 C 44 % 1016,6 hPa 0,0 l/m 0 min 0 min 0,0 UV-I 56 W/m 10,3 km/h (2 Bft)
29.03.2014 18:02 18,4 C 15,6 C 43 % 1016,6 hPa 0,0 l/m 0 min 0 min 0,0 UV-I 67 W/m 7,7 km/h (2 Bft)
29.03.2014 18:04 18,4 C 15,0 C 44 % 1016,6 hPa 0,0 l/m 0 min 0 min 0,0 UV-I 51 W/m 10,3 km/h (2 Bft)
29.03.2014 18:06 18,4 C 15,6 C 43 % 1016,6 hPa 0,0 l/m 0 min 0 min 0,0 UV-I 37 W/m 2,6 km/h (1 Bft)
29.03.2014 18:08 18,4 C 15,0 C 43 % 1016,5 hPa 0,0 l/m 0 min 0 min 0,0 UV-I 33 W/m 15,4 km/h (3 Bft)
29.03.2014 18:10 18,3 C 15,0 C 44 % 1016,5 hPa 0,0 l/m 0 min 0 min 0,0 UV-I 37 W/m 7,7 km/h (2 Bft)
29.03.2014 18:12 18,3 C 15,0 C 44 % 1016,5 hPa 0,0 l/m 0 min 0 min 0,0 UV-I 46 W/m 7,7 km/h (2 Bft)
29.03.2014 18:14 18,3 C 15,0 C 43 % 1016,5 hPa 0,0 l/m 0 min 0 min 0,0 UV-I 39 W/m 2,6 km/h (1 Bft)
29.03.2014 18:16 18,3 C 15,0 C 45 % 1016,5 hPa 0,0 l/m 0 min 0 min 0,0 UV-I 33 W/m 2,6 km/h (1 Bft)
29.03.2014 18:18 18,2 C 15,0 C 45 % 1016,5 hPa 0,0 l/m 0 min 0 min 0,0 UV-I 30 W/m 2,6 km/h (1 Bft)
29.03.2014 18:20 18,1 C 14,4 C 45 % 1016,5 hPa 0,0 l/m 0 min 0 min 0,0 UV-I 30 W/m 0,0 km/h (0 Bft)
29.03.2014 18:22 18,0 C 14,4 C 45 % 1016,6 hPa 0,0 l/m 0 min 0 min 0,0 UV-I 30 W/m 7,7 km/h (2 Bft)
29.03.2014 18:24 17,9 C 14,4 C 45 % 1016,6 hPa 0,0 l/m 0 min 0 min 0,0 UV-I 28 W/m 2,6 km/h (1 Bft)
29.03.2014 18:26 17,8 C 14,4 C 46 % 1016,5 hPa 0,0 l/m 0 min 0 min 0,0 UV-I 26 W/m 2,6 km/h (1 Bft)
29.03.2014 18:28 17,8 C 14,4 C 46 % 1016,6 hPa 0,0 l/m 0 min 0 min 0,0 UV-I 25 W/m 0,0 km/h (0 Bft)
29.03.2014 18:30 17,7 C 13,9 C 45 % 1016,7 hPa 0,0 l/m 0 min 0 min 0,0 UV-I 25 W/m 2,6 km/h (1 Bft)
29.03.2014 18:32 17,7 C 13,9 C 46 % 1016,7 hPa 0,0 l/m 0 min 0 min 0,0 UV-I 23 W/m 0,0 km/h (0 Bft)
29.03.2014 18:34 17,6 C 13,3 C 47 % 1016,7 hPa 0,0 l/m 0 min 0 min 0,0 UV-I 21 W/m 2,6 km/h (1 Bft)
29.03.2014 18:36 17,4 C 12,2 C 48 % 1016,7 hPa 0,0 l/m 0 min 0 min 0,0 UV-I 21 W/m 0,0 km/h (0 Bft)
29.03.2014 18:38 17,3 C 11,7 C 46 % 1016,6 hPa 0,0 l/m 0 min 0 min 0,0 UV-I 21 W/m 0,0 km/h (0 Bft)
29.03.2014 18:40 17,3 C 11,7 C 47 % 1016,6 hPa 0,0 l/m 0 min 0 min 0,0 UV-I 19 W/m 0,0 km/h (0 Bft)
29.03.2014 18:42 17,2 C 11,1 C 47 % 1016,6 hPa 0,0 l/m 0 min 0 min 0,0 UV-I 19 W/m 2,6 km/h (1 Bft)
29.03.2014 18:44 17,1 C 11,1 C 48 % 1016,6 hPa 0,0 l/m 0 min 0 min 0,0 UV-I 18 W/m 0,0 km/h (0 Bft)
29.03.2014 18:46 17,1 C 11,1 C 48 % 1016,6 hPa 0,0 l/m 0 min 0 min 0,0 UV-I 16 W/m 0,0 km/h (0 Bft)
29.03.2014 18:48 16,9 C 11,1 C 48 % 1016,7 hPa 0,0 l/m 0 min 0 min 0,0 UV-I 16 W/m 2,6 km/h (1 Bft)
29.03.2014 18:50 16,9 C 11,1 C 49 % 1016,7 hPa 0,0 l/m 0 min 0 min 0,0 UV-I 14 W/m 0,0 km/h (0 Bft)
29.03.2014 18:52 16,9 C 11,1 C 48 % 1016,7 hPa 0,0 l/m 0 min 0 min 0,0 UV-I 12 W/m 2,6 km/h (1 Bft)
29.03.2014 18:54 16,8 C 11,1 C 49 % 1016,7 hPa 0,0 l/m 0 min 0 min 0,0 UV-I 11 W/m 7,7 km/h (2 Bft)
29.03.2014 18:56 16,8 C 10,6 C 48 % 1016,7 hPa 0,0 l/m 0 min 0 min 0,0 UV-I 9 W/m 2,6 km/h (1 Bft)
29.03.2014 18:58 16,8 C 10,6 C 48 % 1016,7 hPa 0,0 l/m 0 min 0 min 0,0 UV-I 7 W/m 0,0 km/h (0 Bft)
29.03.2014 19:00 16,7 C 10,6 C 49 % 1016,7 hPa 0,0 l/m 0 min 0 min 0,0 UV-I 7 W/m 0,0 km/h (0 Bft)
29.03.2014 19:02 16,6 C 10,6 C 48 % 1016,7 hPa 0,0 l/m 0 min 0 min 0,0 UV-I 5 W/m 0,0 km/h (0 Bft)
29.03.2014 19:04 16,5 C 10,6 C 49 % 1016,7 hPa 0,0 l/m 0 min 0 min 0,0 UV-I 0 W/m 0,0 km/h (0 Bft)
29.03.2014 19:06 16,4 C 10,0 C 49 % 1016,7 hPa 0,0 l/m 0 min 0 min 0,0 UV-I 0 W/m 0,0 km/h (0 Bft)
29.03.2014 19:08 16,4 C 10,0 C 49 % 1016,8 hPa 0,0 l/m 0 min 0 min 0,0 UV-I 0 W/m 0,0 km/h (0 Bft)
29.03.2014 19:10 16,3 C 10,0 C 50 % 1016,7 hPa 0,0 l/m 0 min 0 min 0,0 UV-I 0 W/m 0,0 km/h (0 Bft)
29.03.2014 19:12 16,1 C 10,0 C 51 % 1016,7 hPa 0,0 l/m 0 min 0 min 0,0 UV-I 0 W/m 0,0 km/h (0 Bft)
29.03.2014 19:14 15,9 C 10,0 C 51 % 1016,7 hPa 0,0 l/m 0 min 0 min 0,0 UV-I 0 W/m 0,0 km/h (0 Bft)
29.03.2014 19:16 15,7 C 10,0 C 52 % 1016,7 hPa 0,0 l/m 0 min 0 min 0,0 UV-I 0 W/m 0,0 km/h (0 Bft)
29.03.2014 19:18 15,5 C 9,4 C 53 % 1016,7 hPa 0,0 l/m 0 min 0 min 0,0 UV-I 0 W/m 0,0 km/h (0 Bft)
29.03.2014 19:20 15,3 C 9,4 C 54 % 1016,8 hPa 0,0 l/m 0 min 0 min 0,0 UV-I 0 W/m 0,0 km/h (0 Bft)
29.03.2014 19:22 15,1 C 9,4 C 54 % 1016,8 hPa 0,0 l/m 0 min 0 min 0,0 UV-I 0 W/m 0,0 km/h (0 Bft)
29.03.2014 19:24 14,8 C 9,4 C 55 % 1016,8 hPa 0,0 l/m 0 min 0 min 0,0 UV-I 0 W/m 0,0 km/h (0 Bft)
29.03.2014 19:26 14,7 C 9,4 C 55 % 1016,8 hPa 0,0 l/m 0 min 0 min 0,0 UV-I 0 W/m 0,0 km/h (0 Bft)
29.03.2014 19:28 14,5 C 9,4 C 56 % 1016,8 hPa 0,0 l/m 0 min 0 min 0,0 UV-I 0 W/m 0,0 km/h (0 Bft)
29.03.2014 19:30 14,3 C 9,4 C 57 % 1016,8 hPa 0,0 l/m 0 min 0 min 0,0 UV-I 0 W/m 0,0 km/h (0 Bft)
29.03.2014 19:32 14,2 C 9,4 C 58 % 1016,8 hPa 0,0 l/m 0 min 0 min 0,0 UV-I 0 W/m 0,0 km/h (0 Bft)
29.03.2014 19:34 14,2 C 9,4 C 59 % 1016,8 hPa 0,0 l/m 0 min 0 min 0,0 UV-I 0 W/m 0,0 km/h (0 Bft)
29.03.2014 19:36 13,9 C 9,4 C 59 % 1016,9 hPa 0,0 l/m 0 min 0 min 0,0 UV-I 0 W/m 0,0 km/h (0 Bft)
29.03.2014 19:38 13,8 C 9,4 C 59 % 1016,8 hPa 0,0 l/m 0 min 0 min 0,0 UV-I 0 W/m 0,0 km/h (0 Bft)
29.03.2014 19:40 13,7 C 9,4 C 59 % 1016,9 hPa 0,0 l/m 0 min 0 min 0,0 UV-I 0 W/m 0,0 km/h (0 Bft)
29.03.2014 19:42 13,6 C 9,4 C 60 % 1016,8 hPa 0,0 l/m 0 min 0 min 0,0 UV-I 0 W/m 0,0 km/h (0 Bft)
29.03.2014 19:44 13,5 C 9,4 C 60 % 1016,8 hPa 0,0 l/m 0 min 0 min 0,0 UV-I 0 W/m 0,0 km/h (0 Bft)
29.03.2014 19:46 13,4 C 9,4 C 60 % 1016,9 hPa 0,0 l/m 0 min 0 min 0,0 UV-I 0 W/m 0,0 km/h (0 Bft)
29.03.2014 19:48 13,4 C 8,9 C 60 % 1016,8 hPa 0,0 l/m 0 min 0 min 0,0 UV-I 0 W/m 0,0 km/h (0 Bft)
29.03.2014 19:50 13,3 C 8,9 C 60 % 1016,9 hPa 0,0 l/m 0 min 0 min 0,0 UV-I 0 W/m 0,0 km/h (0 Bft)
29.03.2014 19:52 13,3 C 8,9 C 61 % 1016,9 hPa 0,0 l/m 0 min 0 min 0,0 UV-I 0 W/m 0,0 km/h (0 Bft)
29.03.2014 19:54 13,3 C 8,9 C 61 % 1016,9 hPa 0,0 l/m 0 min 0 min 0,0 UV-I 0 W/m 0,0 km/h (0 Bft)
29.03.2014 19:56 13,3 C 8,9 C 61 % 1016,9 hPa 0,0 l/m 0 min 0 min 0,0 UV-I 0 W/m 0,0 km/h (0 Bft)
29.03.2014 19:58 13,3 C 8,9 C 61 % 1016,9 hPa 0,0 l/m 0 min 0 min 0,0 UV-I 0 W/m 0,0 km/h (0 Bft)
29.03.2014 20:00 13,3 C 8,9 C 61 % 1016,9 hPa 0,0 l/m 0 min 0 min 0,0 UV-I 0 W/m 0,0 km/h (0 Bft)
29.03.2014 20:02 13,2 C 8,9 C 61 % 1016,9 hPa 0,0 l/m 0 min 0 min 0,0 UV-I 0 W/m 0,0 km/h (0 Bft)
29.03.2014 20:04 13,2 C 8,9 C 61 % 1016,9 hPa 0,0 l/m 0 min 0 min 0,0 UV-I 0 W/m 0,0 km/h (0 Bft)
29.03.2014 20:06 13,1 C 8,9 C 61 % 1016,9 hPa 0,0 l/m 0 min 0 min 0,0 UV-I 0 W/m 0,0 km/h (0 Bft)
29.03.2014 20:08 13,1 C 8,9 C 61 % 1016,9 hPa 0,0 l/m 0 min 0 min 0,0 UV-I 0 W/m 0,0 km/h (0 Bft)
29.03.2014 20:10 12,9 C 8,9 C 62 % 1016,9 hPa 0,0 l/m 0 min 0 min 0,0 UV-I 0 W/m 0,0 km/h (0 Bft)
29.03.2014 20:12 12,8 C 8,9 C 62 % 1016,9 hPa 0,0 l/m 0 min 0 min 0,0 UV-I 0 W/m 0,0 km/h (0 Bft)
29.03.2014 20:14 12,7 C 8,3 C 63 % 1016,9 hPa 0,0 l/m 0 min 0 min 0,0 UV-I 0 W/m 0,0 km/h (0 Bft)
29.03.2014 20:16 12,6 C 8,3 C 64 % 1016,9 hPa 0,0 l/m 0 min 0 min 0,0 UV-I 0 W/m 0,0 km/h (0 Bft)
29.03.2014 20:18 12,5 C 8,3 C 64 % 1016,9 hPa 0,0 l/m 0 min 0 min 0,0 UV-I 0 W/m 0,0 km/h (0 Bft)
29.03.2014 20:20 12,3 C 8,3 C 66 % 1016,9 hPa 0,0 l/m 0 min 0 min 0,0 UV-I 0 W/m 0,0 km/h (0 Bft)
29.03.2014 20:22 12,2 C 8,3 C 67 % 1016,9 hPa 0,0 l/m 0 min 0 min 0,0 UV-I 0 W/m 0,0 km/h (0 Bft)
29.03.2014 20:24 12,1 C 8,3 C 67 % 1016,9 hPa 0,0 l/m 0 min 0 min 0,0 UV-I 0 W/m 0,0 km/h (0 Bft)
29.03.2014 20:26 12,0 C 8,3 C 68 % 1016,9 hPa 0,0 l/m 0 min 0 min 0,0 UV-I 0 W/m 0,0 km/h (0 Bft)
29.03.2014 20:28 11,9 C 8,3 C 68 % 1017,0 hPa 0,0 l/m 0 min 0 min 0,0 UV-I 0 W/m 0,0 km/h (0 Bft)
29.03.2014 20:30 11,9 C 8,3 C 69 % 1017,0 hPa 0,0 l/m 0 min 0 min 0,0 UV-I 0 W/m 0,0 km/h (0 Bft)
29.03.2014 20:32 11,8 C 8,3 C 69 % 1017,0 hPa 0,0 l/m 0 min 0 min 0,0 UV-I 0 W/m 0,0 km/h (0 Bft)
29.03.2014 20:34 11,7 C 8,3 C 69 % 1017,0 hPa 0,0 l/m 0 min 0 min 0,0 UV-I 0 W/m 0,0 km/h (0 Bft)
29.03.2014 20:36 11,6 C 8,3 C 69 % 1016,9 hPa 0,0 l/m 0 min 0 min 0,0 UV-I 0 W/m 0,0 km/h (0 Bft)
29.03.2014 20:38 11,4 C 8,3 C 69 % 1016,9 hPa 0,0 l/m 0 min 0 min 0,0 UV-I 0 W/m 0,0 km/h (0 Bft)
29.03.2014 20:40 11,3 C 8,3 C 70 % 1017,0 hPa 0,0 l/m 0 min 0 min 0,0 UV-I 0 W/m 0,0 km/h (0 Bft)
29.03.2014 20:42 11,2 C 8,3 C 71 % 1017,0 hPa 0,0 l/m 0 min 0 min 0,0 UV-I 0 W/m 0,0 km/h (0 Bft)
29.03.2014 20:44 11,2 C 7,8 C 71 % 1017,0 hPa 0,0 l/m 0 min 0 min 0,0 UV-I 0 W/m 0,0 km/h (0 Bft)
29.03.2014 20:46 11,1 C 7,8 C 71 % 1017,0 hPa 0,0 l/m 0 min 0 min 0,0 UV-I 0 W/m 0,0 km/h (0 Bft)
29.03.2014 20:48 11,0 C 7,8 C 71 % 1017,0 hPa 0,0 l/m 0 min 0 min 0,0 UV-I 0 W/m 0,0 km/h (0 Bft)
29.03.2014 20:50 10,9 C 7,8 C 72 % 1017,0 hPa 0,0 l/m 0 min 0 min 0,0 UV-I 0 W/m 0,0 km/h (0 Bft)
29.03.2014 20:52 10,9 C 7,8 C 72 % 1017,0 hPa 0,0 l/m 0 min 0 min 0,0 UV-I 0 W/m 0,0 km/h (0 Bft)
29.03.2014 20:54 10,9 C 7,8 C 72 % 1017,0 hPa 0,0 l/m 0 min 0 min 0,0 UV-I 0 W/m 0,0 km/h (0 Bft)
29.03.2014 20:56 10,9 C 7,8 C 72 % 1017,1 hPa 0,0 l/m 0 min 0 min 0,0 UV-I 0 W/m 0,0 km/h (0 Bft)
29.03.2014 20:58 10,8 C 7,8 C 72 % 1017,0 hPa 0,0 l/m 0 min 0 min 0,0 UV-I 0 W/m 0,0 km/h (0 Bft)
29.03.2014 21:00 10,8 C 7,2 C 72 % 1017,1 hPa 0,0 l/m 0 min 0 min 0,0 UV-I 0 W/m 0,0 km/h (0 Bft)
29.03.2014 21:02 10,7 C 7,2 C 73 % 1017,0 hPa 0,0 l/m 0 min 0 min 0,0 UV-I 0 W/m 0,0 km/h (0 Bft)
29.03.2014 21:04 10,6 C 7,2 C 73 % 1017,1 hPa 0,0 l/m 0 min 0 min 0,0 UV-I 0 W/m 0,0 km/h (0 Bft)
29.03.2014 21:06 10,6 C 7,2 C 73 % 1017,1 hPa 0,0 l/m 0 min 0 min 0,0 UV-I 0 W/m 0,0 km/h (0 Bft)
29.03.2014 21:08 10,5 C 7,2 C 73 % 1017,0 hPa 0,0 l/m 0 min 0 min 0,0 UV-I 0 W/m 0,0 km/h (0 Bft)
29.03.2014 21:10 10,6 C 7,2 C 72 % 1017,1 hPa 0,0 l/m 0 min 0 min 0,0 UV-I 0 W/m 0,0 km/h (0 Bft)
29.03.2014 21:12 10,5 C 7,2 C 72 % 1017,1 hPa 0,0 l/m 0 min 0 min 0,0 UV-I 0 W/m 0,0 km/h (0 Bft)
29.03.2014 21:14 10,4 C 7,2 C 72 % 1017,1 hPa 0,0 l/m 0 min 0 min 0,0 UV-I 0 W/m 0,0 km/h (0 Bft)
29.03.2014 21:16 10,3 C 7,2 C 72 % 1017,1 hPa 0,0 l/m 0 min 0 min 0,0 UV-I 0 W/m 0,0 km/h (0 Bft)
29.03.2014 21:18 10,2 C 7,2 C 72 % 1017,1 hPa 0,0 l/m 0 min 0 min 0,0 UV-I 0 W/m 0,0 km/h (0 Bft)
29.03.2014 21:20 10,1 C 7,2 C 73 % 1017,1 hPa 0,0 l/m 0 min 0 min 0,0 UV-I 0 W/m 0,0 km/h (0 Bft)
29.03.2014 21:22 10,0 C 7,2 C 73 % 1017,1 hPa 0,0 l/m 0 min 0 min 0,0 UV-I 0 W/m 0,0 km/h (0 Bft)
29.03.2014 21:24 9,9 C 7,2 C 74 % 1017,0 hPa 0,0 l/m 0 min 0 min 0,0 UV-I 0 W/m 0,0 km/h (0 Bft)
29.03.2014 21:26 9,9 C 6,7 C 74 % 1017,0 hPa 0,0 l/m 0 min 0 min 0,0 UV-I 0 W/m 0,0 km/h (0 Bft)
29.03.2014 21:28 9,8 C 6,7 C 74 % 1017,1 hPa 0,0 l/m 0 min 0 min 0,0 UV-I 0 W/m 0,0 km/h (0 Bft)
29.03.2014 21:30 9,8 C 6,7 C 75 % 1017,1 hPa 0,0 l/m 0 min 0 min 0,0 UV-I 0 W/m 0,0 km/h (0 Bft)
29.03.2014 21:32 9,8 C 6,7 C 75 % 1017,1 hPa 0,0 l/m 0 min 0 min 0,0 UV-I 0 W/m 0,0 km/h (0 Bft)
29.03.2014 21:34 9,7 C 6,7 C 75 % 1017,1 hPa 0,0 l/m 0 min 0 min 0,0 UV-I 0 W/m 0,0 km/h (0 Bft)
29.03.2014 21:36 9,7 C 6,7 C 75 % 1017,1 hPa 0,0 l/m 0 min 0 min 0,0 UV-I 0 W/m 0,0 km/h (0 Bft)
29.03.2014 21:38 9,7 C 6,7 C 75 % 1017,1 hPa 0,0 l/m 0 min 0 min 0,0 UV-I 0 W/m 0,0 km/h (0 Bft)
29.03.2014 21:40 9,6 C 6,7 C 75 % 1017,1 hPa 0,0 l/m 0 min 0 min 0,0 UV-I 0 W/m 0,0 km/h (0 Bft)
29.03.2014 21:42 9,6 C 6,7 C 75 % 1017,0 hPa 0,0 l/m 0 min 0 min 0,0 UV-I 0 W/m 0,0 km/h (0 Bft)
29.03.2014 21:44 9,5 C 6,7 C 76 % 1017,1 hPa 0,0 l/m 0 min 0 min 0,0 UV-I 0 W/m 0,0 km/h (0 Bft)
29.03.2014 21:46 9,5 C 6,7 C 76 % 1017,1 hPa 0,0 l/m 0 min 0 min 0,0 UV-I 0 W/m 0,0 km/h (0 Bft)
29.03.2014 21:48 9,5 C 6,7 C 76 % 1017,1 hPa 0,0 l/m 0 min 0 min 0,0 UV-I 0 W/m 0,0 km/h (0 Bft)
29.03.2014 21:50 9,6 C 6,7 C 76 % 1017,0 hPa 0,0 l/m 0 min 0 min 0,0 UV-I 0 W/m 0,0 km/h (0 Bft)
29.03.2014 21:52 9,6 C 6,7 C 76 % 1017,0 hPa 0,0 l/m 0 min 0 min 0,0 UV-I 0 W/m 0,0 km/h (0 Bft)
29.03.2014 21:54 9,5 C 6,7 C 76 % 1017,0 hPa 0,0 l/m 0 min 0 min 0,0 UV-I 0 W/m 0,0 km/h (0 Bft)
29.03.2014 21:56 9,4 C 6,7 C 76 % 1017,0 hPa 0,0 l/m 0 min 0 min 0,0 UV-I 0 W/m 0,0 km/h (0 Bft)
29.03.2014 21:58 9,4 C 6,7 C 76 % 1017,0 hPa 0,0 l/m 0 min 0 min 0,0 UV-I 0 W/m 0,0 km/h (0 Bft)
29.03.2014 22:00 9,3 C 6,7 C 76 % 1017,0 hPa 0,0 l/m 0 min 0 min 0,0 UV-I 0 W/m 0,0 km/h (0 Bft)
29.03.2014 22:02 9,3 C 6,1 C 77 % 1017,0 hPa 0,0 l/m 0 min 0 min 0,0 UV-I 0 W/m 0,0 km/h (0 Bft)
29.03.2014 22:04 9,4 C 6,1 C 76 % 1017,0 hPa 0,0 l/m 0 min 0 min 0,0 UV-I 0 W/m 0,0 km/h (0 Bft)
29.03.2014 22:06 9,4 C 6,1 C 76 % 1017,0 hPa 0,0 l/m 0 min 0 min 0,0 UV-I 0 W/m 0,0 km/h (0 Bft)
29.03.2014 22:08 9,4 C 6,1 C 76 % 1017,1 hPa 0,0 l/m 0 min 0 min 0,0 UV-I 0 W/m 0,0 km/h (0 Bft)
29.03.2014 22:10 9,3 C 6,1 C 77 % 1017,1 hPa 0,0 l/m 0 min 0 min 0,0 UV-I 0 W/m 0,0 km/h (0 Bft)
29.03.2014 22:12 9,2 C 6,1 C 77 % 1017,0 hPa 0,0 l/m 0 min 0 min 0,0 UV-I 0 W/m 0,0 km/h (0 Bft)
29.03.2014 22:14 9,2 C 6,1 C 77 % 1017,0 hPa 0,0 l/m 0 min 0 min 0,0 UV-I 0 W/m 0,0 km/h (0 Bft)
29.03.2014 22:16 9,1 C 6,1 C 78 % 1017,0 hPa 0,0 l/m 0 min 0 min 0,0 UV-I 0 W/m 0,0 km/h (0 Bft)
29.03.2014 22:18 9,1 C 6,1 C 78 % 1017,0 hPa 0,0 l/m 0 min 0 min 0,0 UV-I 0 W/m 0,0 km/h (0 Bft)
29.03.2014 22:20 9,0 C 6,1 C 78 % 1016,9 hPa 0,0 l/m 0 min 0 min 0,0 UV-I 0 W/m 0,0 km/h (0 Bft)
29.03.2014 22:22 8,9 C 6,1 C 78 % 1017,0 hPa 0,0 l/m 0 min 0 min 0,0 UV-I 0 W/m 0,0 km/h (0 Bft)
29.03.2014 22:24 8,9 C 6,1 C 78 % 1016,9 hPa 0,0 l/m 0 min 0 min 0,0 UV-I 0 W/m 0,0 km/h (0 Bft)
29.03.2014 22:26 8,8 C 6,1 C 78 % 1017,0 hPa 0,0 l/m 0 min 0 min 0,0 UV-I 0 W/m 0,0 km/h (0 Bft)
29.03.2014 22:28 8,7 C 6,1 C 79 % 1017,0 hPa 0,0 l/m 0 min 0 min 0,0 UV-I 0 W/m 0,0 km/h (0 Bft)
29.03.2014 22:30 8,7 C 6,1 C 79 % 1017,0 hPa 0,0 l/m 0 min 0 min 0,0 UV-I 0 W/m 0,0 km/h (0 Bft)
29.03.2014 22:32 8,6 C 6,1 C 79 % 1017,0 hPa 0,0 l/m 0 min 0 min 0,0 UV-I 0 W/m 0,0 km/h (0 Bft)
29.03.2014 22:34 8,6 C 6,1 C 80 % 1017,0 hPa 0,0 l/m 0 min 0 min 0,0 UV-I 0 W/m 0,0 km/h (0 Bft)
29.03.2014 22:36 8,5 C 6,1 C 80 % 1017,0 hPa 0,0 l/m 0 min 0 min 0,0 UV-I 0 W/m 0,0 km/h (0 Bft)
29.03.2014 22:38 8,4 C 5,6 C 80 % 1017,0 hPa 0,0 l/m 0 min 0 min 0,0 UV-I 0 W/m 0,0 km/h (0 Bft)
29.03.2014 22:40 8,4 C 5,6 C 80 % 1017,0 hPa 0,0 l/m 0 min 0 min 0,0 UV-I 0 W/m 0,0 km/h (0 Bft)
29.03.2014 22:42 8,4 C 5,6 C 80 % 1017,0 hPa 0,0 l/m 0 min 0 min 0,0 UV-I 0 W/m 0,0 km/h (0 Bft)
29.03.2014 22:44 8,4 C 5,6 C 80 % 1017,0 hPa 0,0 l/m 0 min 0 min 0,0 UV-I 0 W/m 0,0 km/h (0 Bft)
29.03.2014 22:46 8,4 C 5,6 C 80 % 1017,0 hPa 0,0 l/m 0 min 0 min 0,0 UV-I 0 W/m 0,0 km/h (0 Bft)
29.03.2014 22:48 8,3 C 5,6 C 80 % 1017,0 hPa 0,0 l/m 0 min 0 min 0,0 UV-I 0 W/m 0,0 km/h (0 Bft)
29.03.2014 22:50 8,2 C 5,6 C 80 % 1017,0 hPa 0,0 l/m 0 min 0 min 0,0 UV-I 0 W/m 0,0 km/h (0 Bft)
29.03.2014 22:52 8,2 C 5,6 C 81 % 1017,0 hPa 0,0 l/m 0 min 0 min 0,0 UV-I 0 W/m 0,0 km/h (0 Bft)
29.03.2014 22:54 8,1 C 5,6 C 81 % 1017,0 hPa 0,0 l/m 0 min 0 min 0,0 UV-I 0 W/m 0,0 km/h (0 Bft)
29.03.2014 22:56 8,1 C 5,6 C 81 % 1017,0 hPa 0,0 l/m 0 min 0 min 0,0 UV-I 0 W/m 0,0 km/h (0 Bft)
29.03.2014 22:58 8,0 C 5,6 C 81 % 1017,1 hPa 0,0 l/m 0 min 0 min 0,0 UV-I 0 W/m 0,0 km/h (0 Bft)
29.03.2014 23:00 7,9 C 5,6 C 81 % 1017,1 hPa 0,0 l/m 0 min 0 min 0,0 UV-I 0 W/m 0,0 km/h (0 Bft)
29.03.2014 23:02 8,0 C 5,6 C 81 % 1017,0 hPa 0,0 l/m 0 min 0 min 0,0 UV-I 0 W/m 0,0 km/h (0 Bft)
29.03.2014 23:04 7,9 C 5,6 C 81 % 1017,0 hPa 0,0 l/m 0 min 0 min 0,0 UV-I 0 W/m 0,0 km/h (0 Bft)
29.03.2014 23:06 7,9 C 5,6 C 82 % 1017,0 hPa 0,0 l/m 0 min 0 min 0,0 UV-I 0 W/m 0,0 km/h (0 Bft)
29.03.2014 23:08 7,9 C 5,6 C 82 % 1017,1 hPa 0,0 l/m 0 min 0 min 0,0 UV-I 0 W/m 0,0 km/h (0 Bft)
29.03.2014 23:10 7,9 C 5,6 C 82 % 1017,0 hPa 0,0 l/m 0 min 0 min 0,0 UV-I 0 W/m 0,0 km/h (0 Bft)
29.03.2014 23:12 7,9 C 5,6 C 82 % 1017,0 hPa 0,0 l/m 0 min 0 min 0,0 UV-I 0 W/m 0,0 km/h (0 Bft)
29.03.2014 23:14 7,8 C 5,0 C 82 % 1017,0 hPa 0,0 l/m 0 min 0 min 0,0 UV-I 0 W/m 0,0 km/h (0 Bft)
29.03.2014 23:16 7,7 C 5,0 C 82 % 1017,0 hPa 0,0 l/m 0 min 0 min 0,0 UV-I 0 W/m 0,0 km/h (0 Bft)
29.03.2014 23:18 7,7 C 5,0 C 82 % 1017,0 hPa 0,0 l/m 0 min 0 min 0,0 UV-I 0 W/m 0,0 km/h (0 Bft)
29.03.2014 23:20 7,7 C 5,0 C 82 % 1017,0 hPa 0,0 l/m 0 min 0 min 0,0 UV-I 0 W/m 0,0 km/h (0 Bft)
29.03.2014 23:22 7,7 C 5,0 C 82 % 1017,0 hPa 0,0 l/m 0 min 0 min 0,0 UV-I 0 W/m 0,0 km/h (0 Bft)
29.03.2014 23:24 7,6 C 5,0 C 82 % 1017,0 hPa 0,0 l/m 0 min 0 min 0,0 UV-I 0 W/m 0,0 km/h (0 Bft)
29.03.2014 23:26 7,6 C 5,0 C 83 % 1017,0 hPa 0,0 l/m 0 min 0 min 0,0 UV-I 0 W/m 0,0 km/h (0 Bft)
29.03.2014 23:28 7,6 C 5,0 C 83 % 1017,0 hPa 0,0 l/m 0 min 0 min 0,0 UV-I 0 W/m 0,0 km/h (0 Bft)
29.03.2014 23:30 7,5 C 5,0 C 83 % 1017,1 hPa 0,0 l/m 0 min 0 min 0,0 UV-I 0 W/m 0,0 km/h (0 Bft)
29.03.2014 23:32 7,6 C 5,0 C 83 % 1017,1 hPa 0,0 l/m 0 min 0 min 0,0 UV-I 0 W/m 0,0 km/h (0 Bft)
29.03.2014 23:34 7,6 C 5,0 C 83 % 1017,0 hPa 0,0 l/m 0 min 0 min 0,0 UV-I 0 W/m 0,0 km/h (0 Bft)
29.03.2014 23:36 7,5 C 5,0 C 83 % 1017,0 hPa 0,0 l/m 0 min 0 min 0,0 UV-I 0 W/m 0,0 km/h (0 Bft)
29.03.2014 23:38 7,6 C 5,0 C 83 % 1017,0 hPa 0,0 l/m 0 min 0 min 0,0 UV-I 0 W/m 0,0 km/h (0 Bft)
29.03.2014 23:40 7,5 C 5,0 C 83 % 1017,0 hPa 0,0 l/m 0 min 0 min 0,0 UV-I 0 W/m 0,0 km/h (0 Bft)
29.03.2014 23:42 7,4 C 5,0 C 83 % 1017,0 hPa 0,0 l/m 0 min 0 min 0,0 UV-I 0 W/m 0,0 km/h (0 Bft)
29.03.2014 23:44 7,4 C 5,0 C 83 % 1017,1 hPa 0,0 l/m 0 min 0 min 0,0 UV-I 0 W/m 0,0 km/h (0 Bft)
29.03.2014 23:46 7,3 C 5,0 C 83 % 1017,1 hPa 0,0 l/m 0 min 0 min 0,0 UV-I 0 W/m 0,0 km/h (0 Bft)
29.03.2014 23:48 7,3 C 5,0 C 84 % 1017,1 hPa 0,0 l/m 0 min 0 min 0,0 UV-I 0 W/m 0,0 km/h (0 Bft)
29.03.2014 23:50 7,2 C 5,0 C 84 % 1017,0 hPa 0,0 l/m 0 min 0 min 0,0 UV-I 0 W/m 0,0 km/h (0 Bft)
29.03.2014 23:52 7,2 C 5,0 C 84 % 1017,1 hPa 0,0 l/m 0 min 0 min 0,0 UV-I 0 W/m 0,0 km/h (0 Bft)
29.03.2014 23:54 7,2 C 5,0 C 84 % 1017,0 hPa 0,0 l/m 0 min 0 min 0,0 UV-I 0 W/m 0,0 km/h (0 Bft)
29.03.2014 23:56 7,2 C 5,0 C 84 % 1017,0 hPa 0,0 l/m 0 min 0 min 0,0 UV-I 0 W/m 0,0 km/h (0 Bft)
29.03.2014 23:58 7,1 C 4,4 C 84 % 1017,0 hPa 0,0 l/m 0 min 0 min 0,0 UV-I 0 W/m 0,0 km/h (0 Bft)
_ Min-Zeit 05:16 23:58 15:34 17:22 - - - - - 03:54
Minimum _ 6,8 C 4,4 C 39 % 1016,5 hPa - - - - - 0,0 km/h (0 Bft)
_ Max-Zeit 14:50 15:26 23:48 09:24 00:00 07:42 00:00 12:50 13:08 08:58
Maximum _ 21,0 C 22,2 C 84 % 1019,9 hPa 0,0 l/m 2 min 0 min 1,9 UV-I 673 W/m 33,5 km/h
SO (5 Bft)
Durchschnitt _ 12,7 C 10,6 C 65 % 1018,2 hPa #0,0 l/m #9:24 h #0 min. 1,2 UV-I 351 W/m 12,0 km/h (2 Bft)
© 2014 W. Hausmann